QFA28 SCEL-YSSY

Flight info

Callsign QFA28
Flight time 12h 48m
Altitude 33000
Route GELUS3C GELUS UQ809 PANEX UV200 VLD UQ809 MPI/N0494F340 DCT 46S078W/N0491F330 51S083W 55S090W/N0493F340 58S098W 61S108W/N0487F360 63S119W 65S132W 65S145W 63S158W 61S170W/N0481F380 58S179W DCT MIBAD DCT 50S166E 46S161E/N0489F400 DCT SMIFF DCT 38S153E DCT TESAT
Aircraft B789/H-SDE1E2E3FGHIJ2J3J4J5M1RWXY/LB1D1

Departure

Time 2026-05-05 07:52
Airport Comodoro Arturo Merino Benítez International Airport (SCEL)

Arrival

Time 2026-05-05 20:41
Airport Sydney Kingsford Smith International Airport (YSSY)
Time Latitude Longitude Altitude Speed Heading
2026-05-05 07:31 -33.40239 -70.79790 1570 ft 0 kts 178°
2026-05-05 07:44 -33.40238 -70.79790 1570 ft 1 kts 178°
2026-05-05 07:44 -33.40214 -70.79791 1570 ft 4 kts 177°
2026-05-05 07:44 -33.40191 -70.79793 1570 ft 4 kts 181°
2026-05-05 07:44 -33.40170 -70.79783 1570 ft 4 kts 236°
2026-05-05 07:45 -33.40160 -70.79754 1570 ft 4 kts 259°
2026-05-05 07:45 -33.40157 -70.79733 1569 ft 0 kts 268°
2026-05-05 07:47 -33.40158 -70.79750 1570 ft 6 kts 268°
2026-05-05 07:47 -33.40160 -70.79823 1570 ft 11 kts 268°
2026-05-05 07:48 -33.40164 -70.79931 1570 ft 14 kts 270°
2026-05-05 07:48 -33.40205 -70.79991 1571 ft 8 kts 186°
2026-05-05 07:48 -33.40271 -70.79990 1572 ft 13 kts 178°
2026-05-05 07:48 -33.40382 -70.79985 1572 ft 18 kts 177°
2026-05-05 07:49 -33.40521 -70.79975 1571 ft 21 kts 176°
2026-05-05 07:49 -33.40596 -70.80022 1572 ft 6 kts 270°
2026-05-05 07:49 -33.40595 -70.80086 1576 ft 8 kts 269°
2026-05-05 07:49 -33.40603 -70.80141 1579 ft 7 kts 257°
2026-05-05 07:50 -33.40601 -70.80179 1579 ft 2 kts 309°
2026-05-05 07:50 -33.40573 -70.80192 1579 ft 4 kts 357°
2026-05-05 07:50 -33.40572 -70.80192 1579 ft 0 kts 357°
2026-05-05 07:51 -33.40452 -70.80199 1579 ft 46 kts 358°
2026-05-05 07:51 -33.39922 -70.80228 1578 ft 105 kts 358°
2026-05-05 07:51 -33.39010 -70.80275 1579 ft 156 kts 357°
2026-05-05 07:51 -33.37793 -70.80338 1618 ft 194 kts 357°
2026-05-05 07:52 -33.36414 -70.80384 2058 ft 202 kts 358°
2026-05-05 07:52 -33.35031 -70.80432 2708 ft 202 kts 358°
2026-05-05 07:52 -33.33583 -70.80504 3076 ft 215 kts 358°
2026-05-05 07:52 -33.32046 -70.80608 3498 ft 226 kts 357°
2026-05-05 07:53 -33.30436 -70.80743 3985 ft 239 kts 356°
2026-05-05 07:53 -33.28714 -70.80836 4229 ft 263 kts 359°
2026-05-05 07:53 -33.26833 -70.80899 4826 ft 271 kts 358°
2026-05-05 07:53 -33.24975 -70.80709 5720 ft 269 kts 22°
2026-05-05 07:54 -33.23389 -70.79558 6471 ft 274 kts 47°
2026-05-05 07:54 -33.22390 -70.77620 7190 ft 280 kts 72°
2026-05-05 07:54 -33.22258 -70.75284 7862 ft 288 kts 99°
2026-05-05 07:54 -33.23101 -70.73093 8508 ft 297 kts 130°
2026-05-05 07:55 -33.24768 -70.71645 9187 ft 302 kts 161°
2026-05-05 07:55 -33.26829 -70.71046 9784 ft 309 kts 169°
2026-05-05 07:55 -33.28977 -70.70609 10285 ft 320 kts 172°
2026-05-05 07:55 -33.31244 -70.70164 10359 ft 347 kts 171°
2026-05-05 07:56 -33.33711 -70.69620 10442 ft 372 kts 169°
2026-05-05 07:56 -33.36334 -70.69022 10655 ft 389 kts 170°
2026-05-05 07:56 -33.38996 -70.68436 11393 ft 390 kts 171°
2026-05-05 07:56 -33.41656 -70.67866 12027 ft 394 kts 172°
2026-05-05 07:57 -33.44392 -70.67780 12668 ft 392 kts 192°
2026-05-05 07:57 -33.46994 -70.68696 13360 ft 388 kts 210°
2026-05-05 07:57 -33.49252 -70.70433 14031 ft 385 kts 221°
2026-05-05 07:57 -33.51404 -70.72359 14684 ft 386 kts 221°
2026-05-05 07:58 -33.53543 -70.74310 15384 ft 386 kts 221°
2026-05-05 07:58 -33.55673 -70.76240 16062 ft 387 kts 221°
2026-05-05 07:58 -33.57835 -70.78180 16715 ft 388 kts 221°
2026-05-05 07:58 -33.59871 -70.80322 16920 ft 394 kts 232°
2026-05-05 07:59 -33.61758 -70.82804 16958 ft 411 kts 230°
2026-05-05 07:59 -33.63792 -70.85273 17409 ft 415 kts 229°
2026-05-05 07:59 -33.65812 -70.87756 18011 ft 415 kts 231°
2026-05-05 07:59 -33.67771 -70.90262 18524 ft 417 kts 231°
2026-05-05 08:00 -33.69762 -70.92807 18962 ft 419 kts 231°
2026-05-05 08:00 -33.71788 -70.95351 19400 ft 422 kts 231°
2026-05-05 08:00 -33.73829 -70.97907 19840 ft 424 kts 231°
2026-05-05 08:00 -33.75874 -71.00494 20287 ft 427 kts 231°
2026-05-05 08:01 -33.77897 -71.03063 20698 ft 429 kts 231°
2026-05-05 08:01 -33.79964 -71.05677 21093 ft 432 kts 231°
2026-05-05 08:01 -33.82048 -71.08310 21518 ft 434 kts 231°
2026-05-05 08:01 -33.84144 -71.10966 21915 ft 437 kts 231°
2026-05-05 08:02 -33.86215 -71.13593 22288 ft 438 kts 231°
2026-05-05 08:02 -33.88328 -71.16275 22576 ft 442 kts 231°
2026-05-05 08:02 -33.90512 -71.18915 22922 ft 448 kts 225°
2026-05-05 08:02 -33.92159 -71.20447 23147 ft 453 kts 220°
2026-05-05 08:03 -33.95857 -71.22966 23522 ft 464 kts 213°
2026-05-05 08:03 -33.98744 -71.24748 23876 ft 465 kts 213°
2026-05-05 08:03 -34.00664 -71.25921 24060 ft 466 kts 213°
2026-05-05 08:03 -34.03574 -71.27694 24332 ft 468 kts 213°
2026-05-05 08:04 -34.07433 -71.30063 24680 ft 470 kts 213°
2026-05-05 08:04 -34.09404 -71.31277 24873 ft 471 kts 213°
2026-05-05 08:04 -34.12295 -71.33056 25145 ft 473 kts 213°
2026-05-05 08:04 -34.15240 -71.34863 25413 ft 474 kts 213°
2026-05-05 08:05 -34.18189 -71.36677 25650 ft 476 kts 213°
2026-05-05 08:05 -34.21150 -71.38503 25897 ft 477 kts 213°
2026-05-05 08:05 -34.24078 -71.40308 26162 ft 479 kts 213°
2026-05-05 08:05 -34.27054 -71.42143 26409 ft 480 kts 213°
2026-05-05 08:06 -34.30037 -71.43985 26644 ft 482 kts 213°
2026-05-05 08:06 -34.33038 -71.45839 26871 ft 483 kts 213°
2026-05-05 08:06 -34.36044 -71.47698 27105 ft 485 kts 213°
2026-05-05 08:06 -34.39056 -71.49562 27318 ft 486 kts 213°
2026-05-05 08:07 -34.42077 -71.51434 27536 ft 488 kts 213°
2026-05-05 08:07 -34.45066 -71.53286 27735 ft 489 kts 213°
2026-05-05 08:07 -34.48097 -71.55167 27940 ft 491 kts 213°
2026-05-05 08:07 -34.51154 -71.57065 28141 ft 492 kts 213°
2026-05-05 08:08 -34.54211 -71.58965 28326 ft 494 kts 213°
2026-05-05 08:08 -34.57279 -71.60873 28525 ft 495 kts 213°
2026-05-05 08:08 -34.60351 -71.62785 28712 ft 496 kts 213°
2026-05-05 08:08 -34.63389 -71.64676 28904 ft 497 kts 213°
2026-05-05 08:09 -34.66479 -71.66600 29069 ft 499 kts 213°
2026-05-05 08:09 -34.69576 -71.68533 29246 ft 500 kts 213°
2026-05-05 08:09 -34.72676 -71.70468 29412 ft 501 kts 213°
2026-05-05 08:09 -34.75786 -71.72410 29559 ft 502 kts 213°
2026-05-05 08:10 -34.78904 -71.74359 29728 ft 503 kts 213°
2026-05-05 08:10 -34.81988 -71.76289 29884 ft 504 kts 213°
2026-05-05 08:10 -34.85110 -71.78245 30010 ft 505 kts 213°
2026-05-05 08:10 -34.88250 -71.80213 30143 ft 506 kts 213°
2026-05-05 08:11 -34.91395 -71.82186 30278 ft 507 kts 213°
2026-05-05 08:11 -34.94539 -71.84161 30384 ft 508 kts 213°
2026-05-05 08:11 -34.97651 -71.86117 30517 ft 509 kts 214°
2026-05-05 08:11 -35.00802 -71.88099 30618 ft 509 kts 214°
2026-05-05 08:12 -35.03960 -71.90087 30728 ft 510 kts 214°
2026-05-05 08:12 -35.07109 -71.92070 31080 ft 503 kts 214°
2026-05-05 08:12 -35.10203 -71.94012 31536 ft 499 kts 214°
2026-05-05 08:12 -35.13262 -71.95953 31546 ft 502 kts 214°
2026-05-05 08:13 -35.16371 -71.97924 31673 ft 503 kts 214°
2026-05-05 08:13 -35.19486 -71.99887 31951 ft 497 kts 214°
2026-05-05 08:13 -35.22514 -72.01788 32823 ft 483 kts 214°
2026-05-05 08:13 -35.25492 -72.03681 32976 ft 484 kts 215°
2026-05-05 08:14 -35.31480 -72.07497 32986 ft 492 kts 214°
2026-05-05 08:14 -35.37602 -72.11376 32992 ft 497 kts 214°
2026-05-05 08:15 -35.43729 -72.15284 32998 ft 498 kts 214°
2026-05-05 08:15 -35.49898 -72.19214 32996 ft 498 kts 215°
2026-05-05 08:16 -35.56013 -72.23126 32995 ft 497 kts 215°
2026-05-05 08:16 -35.62162 -72.27060 32998 ft 497 kts 215°
2026-05-05 08:17 -35.68292 -72.30992 33003 ft 497 kts 215°
2026-05-05 08:17 -35.74387 -72.34908 32999 ft 497 kts 215°
2026-05-05 08:18 -35.80528 -72.38860 32995 ft 496 kts 215°
2026-05-05 08:18 -35.86662 -72.42809 32991 ft 498 kts 213°
2026-05-05 08:19 -35.93281 -72.45629 32986 ft 511 kts 203°
2026-05-05 08:19 -36.00148 -72.47967 32998 ft 511 kts 203°
2026-05-05 08:20 -36.07040 -72.50304 32989 ft 513 kts 203°
2026-05-05 08:20 -36.13894 -72.52638 32997 ft 513 kts 203°
2026-05-05 08:21 -36.20807 -72.54994 32989 ft 514 kts 203°
2026-05-05 08:21 -36.27665 -72.57336 32984 ft 514 kts 203°
2026-05-05 08:22 -36.34575 -72.59701 32991 ft 515 kts 203°
2026-05-05 08:22 -36.41507 -72.62076 32977 ft 515 kts 203°
2026-05-05 08:23 -36.48376 -72.64436 32981 ft 515 kts 204°
2026-05-05 08:23 -36.55289 -72.66815 32983 ft 515 kts 204°
2026-05-05 08:24 -36.62207 -72.69199 32981 ft 515 kts 204°
2026-05-05 08:24 -36.69082 -72.71573 32981 ft 514 kts 204°
2026-05-05 08:25 -36.75993 -72.73965 32983 ft 514 kts 204°
2026-05-05 08:25 -36.82895 -72.76357 32983 ft 514 kts 204°
2026-05-05 08:26 -36.89785 -72.78749 32983 ft 513 kts 204°
2026-05-05 08:26 -36.96634 -72.81133 32986 ft 512 kts 204°
2026-05-05 08:27 -37.03517 -72.83532 32973 ft 512 kts 204°
2026-05-05 08:27 -37.10348 -72.85918 32971 ft 512 kts 204°
2026-05-05 08:28 -37.17232 -72.88326 32976 ft 512 kts 204°
2026-05-05 08:28 -37.24071 -72.90724 32971 ft 512 kts 204°
2026-05-05 08:29 -37.30958 -72.93143 32969 ft 513 kts 204°
2026-05-05 08:30 -37.41280 -72.96777 32963 ft 514 kts 204°
2026-05-05 08:30 -37.48134 -72.99195 32969 ft 514 kts 204°
2026-05-05 08:31 -37.55037 -73.01637 32968 ft 515 kts 204°
2026-05-05 08:31 -37.61975 -73.04094 32960 ft 516 kts 205°
2026-05-05 08:32 -37.68865 -73.06540 32957 ft 517 kts 205°
2026-05-05 08:32 -37.75868 -73.08846 32969 ft 526 kts 197°
2026-05-05 08:32 -37.79515 -73.09283 32962 ft 538 kts 188°
2026-05-05 08:33 -37.83269 -73.09286 32940 ft 541 kts 188°
2026-05-05 08:33 -37.90809 -73.09248 32946 ft 540 kts 188°
2026-05-05 08:34 -37.98313 -73.09224 32938 ft 540 kts 188°
2026-05-05 08:34 -38.05858 -73.09193 32946 ft 541 kts 188°
2026-05-05 08:35 -38.13343 -73.09163 32946 ft 540 kts 188°
2026-05-05 08:35 -38.20853 -73.09135 32939 ft 539 kts 188°
2026-05-05 08:36 -38.28383 -73.09105 32942 ft 539 kts 188°
2026-05-05 08:36 -38.35833 -73.09077 32941 ft 538 kts 188°
2026-05-05 08:37 -38.43328 -73.09048 32940 ft 537 kts 188°
2026-05-05 08:37 -38.50777 -73.09018 32936 ft 537 kts 187°
2026-05-05 08:38 -38.58285 -73.08990 32937 ft 538 kts 187°
2026-05-05 08:38 -38.65796 -73.08960 32920 ft 540 kts 187°
2026-05-05 08:39 -38.73267 -73.08930 32929 ft 540 kts 187°
2026-05-05 08:39 -38.80805 -73.08901 32928 ft 540 kts 187°
2026-05-05 08:40 -38.88293 -73.08871 32938 ft 541 kts 187°
2026-05-05 08:40 -38.95847 -73.08841 32933 ft 543 kts 187°
2026-05-05 08:41 -39.03412 -73.08811 32932 ft 543 kts 187°
2026-05-05 08:41 -39.10946 -73.08781 32933 ft 544 kts 187°
2026-05-05 08:42 -39.18532 -73.08751 32928 ft 544 kts 187°
2026-05-05 08:42 -39.26128 -73.08721 32932 ft 545 kts 187°
2026-05-05 08:43 -39.33666 -73.08690 32937 ft 545 kts 187°
2026-05-05 08:43 -39.41269 -73.08660 32943 ft 545 kts 187°
2026-05-05 08:44 -39.48879 -73.08629 32939 ft 546 kts 187°
2026-05-05 08:44 -39.56440 -73.08598 32949 ft 545 kts 187°
2026-05-05 08:45 -39.64038 -73.08569 32949 ft 545 kts 187°
2026-05-05 08:45 -39.71422 -73.09521 32944 ft 533 kts 198°
2026-05-05 08:46 -39.78742 -73.11190 32945 ft 534 kts 198°
2026-05-05 08:46 -39.86086 -73.12850 32938 ft 535 kts 198°
2026-05-05 08:47 -39.93419 -73.14518 32931 ft 535 kts 198°
2026-05-05 08:47 -40.00727 -73.16184 32924 ft 536 kts 198°
2026-05-05 08:48 -40.08113 -73.17869 32926 ft 537 kts 198°
2026-05-05 08:48 -40.15442 -73.19544 32926 ft 538 kts 198°
2026-05-05 08:49 -40.22832 -73.21236 32920 ft 538 kts 198°
2026-05-05 08:49 -40.30233 -73.22937 32924 ft 540 kts 199°
2026-05-05 08:50 -40.37647 -73.24641 32921 ft 541 kts 199°
2026-05-05 08:50 -40.45043 -73.26347 32930 ft 542 kts 199°
2026-05-05 08:51 -40.52471 -73.28062 32922 ft 542 kts 199°
2026-05-05 08:51 -40.59877 -73.29778 32924 ft 542 kts 199°
2026-05-05 08:52 -40.67333 -73.31508 32925 ft 543 kts 200°
2026-05-05 08:52 -40.74790 -73.33243 32928 ft 543 kts 200°
2026-05-05 08:53 -40.82213 -73.34974 32930 ft 544 kts 200°
2026-05-05 08:53 -40.88412 -73.36423 32934 ft 544 kts 200°
2026-05-05 08:54 -40.95889 -73.38172 32935 ft 543 kts 201°
2026-05-05 08:54 -41.03292 -73.39910 32938 ft 543 kts 201°
2026-05-05 08:55 -41.10746 -73.41666 32938 ft 543 kts 201°
2026-05-05 08:55 -41.18139 -73.43410 32940 ft 543 kts 201°
2026-05-05 08:56 -41.25575 -73.45168 32941 ft 542 kts 201°
2026-05-05 08:56 -41.33014 -73.46932 32932 ft 542 kts 202°
2026-05-05 08:57 -41.40435 -73.48695 32931 ft 541 kts 202°
2026-05-05 08:57 -41.47812 -73.50452 32934 ft 540 kts 202°
2026-05-05 08:58 -41.55227 -73.52222 32922 ft 540 kts 202°
2026-05-05 08:58 -41.62645 -73.53997 32924 ft 540 kts 202°
2026-05-05 08:59 -41.70017 -73.55765 32926 ft 540 kts 202°
2026-05-05 08:59 -41.77442 -73.57550 32926 ft 540 kts 203°
2026-05-05 09:00 -41.84834 -73.59331 32925 ft 541 kts 203°
2026-05-05 09:00 -41.92273 -73.61126 32913 ft 540 kts 203°
2026-05-05 09:01 -41.99606 -73.62901 32932 ft 539 kts 203°
2026-05-05 09:01 -42.06997 -73.64702 32931 ft 540 kts 203°
2026-05-05 09:02 -42.14370 -73.66497 32930 ft 539 kts 203°
2026-05-05 09:02 -42.21758 -73.68304 32932 ft 539 kts 203°
2026-05-05 09:03 -42.29112 -73.70198 32940 ft 528 kts 209°
2026-05-05 09:03 -42.32561 -73.71724 32942 ft 513 kts 216°
2026-05-05 09:03 -42.35742 -73.73748 32949 ft 498 kts 223°
2026-05-05 09:03 -42.38640 -73.76207 32942 ft 484 kts 230°
2026-05-05 09:04 -42.41229 -73.78943 32931 ft 477 kts 232°
2026-05-05 09:04 -42.46432 -73.84558 32932 ft 478 kts 232°
2026-05-05 09:05 -42.51629 -73.90210 32930 ft 478 kts 232°
2026-05-05 09:05 -42.56797 -73.95830 32935 ft 478 kts 232°
2026-05-05 09:06 -42.61985 -74.01489 32931 ft 478 kts 232°
2026-05-05 09:06 -42.67168 -74.07151 32919 ft 477 kts 232°
2026-05-05 09:07 -42.72318 -74.12795 32926 ft 477 kts 232°
2026-05-05 09:07 -42.77497 -74.18479 32925 ft 477 kts 232°
2026-05-05 09:08 -42.82647 -74.24143 32929 ft 477 kts 232°
2026-05-05 09:08 -42.87814 -74.29840 33121 ft 476 kts 232°
2026-05-05 09:08 -42.90388 -74.32679 33319 ft 475 kts 233°
2026-05-05 09:09 -42.92931 -74.35492 33508 ft 474 kts 233°
2026-05-05 09:09 -42.95489 -74.38326 33686 ft 474 kts 233°
2026-05-05 09:09 -42.98047 -74.41160 33873 ft 473 kts 233°
2026-05-05 09:10 -43.03174 -74.46853 33915 ft 476 kts 233°
2026-05-05 09:10 -43.08312 -74.52559 33913 ft 473 kts 233°
2026-05-05 09:11 -43.13388 -74.58228 33923 ft 474 kts 233°
2026-05-05 09:11 -43.18525 -74.63963 33918 ft 476 kts 232°
2026-05-05 09:12 -43.23633 -74.69685 33925 ft 477 kts 232°
2026-05-05 09:12 -43.28788 -74.75470 33926 ft 477 kts 231°
2026-05-05 09:13 -43.33934 -74.81259 33935 ft 478 kts 231°
2026-05-05 09:13 -43.39089 -74.87070 33913 ft 480 kts 231°
2026-05-05 09:14 -43.44223 -74.92872 33917 ft 481 kts 230°
2026-05-05 09:14 -43.49415 -74.98751 33923 ft 482 kts 230°
2026-05-05 09:15 -43.54602 -75.04639 33921 ft 483 kts 229°
2026-05-05 09:15 -43.59770 -75.10520 33918 ft 484 kts 229°
2026-05-05 09:16 -43.64978 -75.16457 33920 ft 484 kts 228°
2026-05-05 09:16 -43.70148 -75.22369 33916 ft 485 kts 227°
2026-05-05 09:17 -43.75358 -75.28337 33924 ft 485 kts 227°
2026-05-05 09:17 -43.80565 -75.34318 33916 ft 486 kts 227°
2026-05-05 09:18 -43.85738 -75.40271 33921 ft 486 kts 227°
2026-05-05 09:18 -43.90947 -75.46281 33918 ft 485 kts 226°
2026-05-05 09:19 -43.96116 -75.52260 33918 ft 486 kts 226°
2026-05-05 09:19 -44.01304 -75.58272 33919 ft 486 kts 226°
2026-05-05 09:20 -44.06501 -75.64311 33917 ft 485 kts 226°
2026-05-05 09:20 -44.11649 -75.70307 33917 ft 485 kts 226°
2026-05-05 09:21 -44.16824 -75.76349 33916 ft 484 kts 226°
2026-05-05 09:21 -44.21997 -75.82403 33914 ft 485 kts 226°
2026-05-05 09:22 -44.27168 -75.88467 33916 ft 485 kts 226°
2026-05-05 09:22 -44.32306 -75.94509 33915 ft 484 kts 226°
2026-05-05 09:23 -44.37457 -76.00580 33914 ft 484 kts 226°
2026-05-05 09:23 -44.42587 -76.06641 33914 ft 485 kts 226°
2026-05-05 09:24 -44.47746 -76.12750 33915 ft 485 kts 226°
2026-05-05 09:24 -44.52883 -76.18848 33911 ft 485 kts 226°
2026-05-05 09:25 -44.58037 -76.24981 33895 ft 485 kts 226°
2026-05-05 09:25 -44.63153 -76.31083 33914 ft 484 kts 226°
2026-05-05 09:26 -44.68301 -76.37238 33905 ft 483 kts 226°
2026-05-05 09:26 -44.73397 -76.43346 33910 ft 483 kts 226°
2026-05-05 09:27 -44.78509 -76.49487 33913 ft 482 kts 226°
2026-05-05 09:27 -44.83611 -76.55632 33904 ft 481 kts 226°
2026-05-05 09:28 -44.88662 -76.61730 33907 ft 480 kts 226°
2026-05-05 09:28 -44.93738 -76.67873 33909 ft 479 kts 226°
2026-05-05 09:29 -44.98797 -76.74010 33906 ft 479 kts 226°
2026-05-05 09:29 -45.03857 -76.80163 33905 ft 479 kts 226°
2026-05-05 09:30 -45.08889 -76.86296 33904 ft 479 kts 226°
2026-05-05 09:30 -45.13947 -76.92476 33903 ft 479 kts 226°
2026-05-05 09:31 -45.18964 -76.98622 33902 ft 479 kts 226°
2026-05-05 09:31 -45.24012 -77.04820 33897 ft 479 kts 226°
2026-05-05 09:32 -45.29029 -77.10995 33900 ft 480 kts 226°
2026-05-05 09:32 -45.34080 -77.17227 33893 ft 481 kts 226°
2026-05-05 09:33 -45.39139 -77.23484 33895 ft 481 kts 226°
2026-05-05 09:33 -45.44183 -77.29739 33895 ft 482 kts 226°
2026-05-05 09:34 -45.49223 -77.36003 33901 ft 482 kts 226°
2026-05-05 09:34 -45.54296 -77.42324 33901 ft 483 kts 226°
2026-05-05 09:35 -45.59354 -77.48643 33900 ft 483 kts 226°
2026-05-05 09:35 -45.66897 -77.58096 33904 ft 483 kts 226°
2026-05-05 09:36 -45.71960 -77.64459 33900 ft 484 kts 226°
2026-05-05 09:36 -45.76996 -77.70805 33903 ft 484 kts 226°
2026-05-05 09:37 -45.82067 -77.77212 33906 ft 484 kts 226°
2026-05-05 09:37 -45.87089 -77.83571 33898 ft 484 kts 226°
2026-05-05 09:38 -45.92146 -77.89993 33903 ft 484 kts 226°
2026-05-05 09:38 -45.97197 -77.96422 33901 ft 484 kts 226°
2026-05-05 09:39 -46.02589 -78.02302 33901 ft 490 kts 216°
2026-05-05 09:39 -46.08375 -78.07452 33905 ft 492 kts 216°
2026-05-05 09:40 -46.14188 -78.12639 33905 ft 492 kts 216°
2026-05-05 09:40 -46.19028 -78.16975 33907 ft 492 kts 216°
2026-05-05 09:41 -46.24857 -78.22197 33905 ft 492 kts 216°
2026-05-05 09:41 -46.30675 -78.27431 33908 ft 492 kts 216°
2026-05-05 09:42 -46.36463 -78.32647 33905 ft 492 kts 216°
2026-05-05 09:42 -46.42284 -78.37908 33903 ft 492 kts 216°
2026-05-05 09:43 -46.48058 -78.43139 33903 ft 491 kts 216°
2026-05-05 09:43 -46.53864 -78.48412 33904 ft 491 kts 216°
2026-05-05 09:44 -46.59672 -78.53702 33900 ft 492 kts 216°
2026-05-05 09:44 -46.65436 -78.58964 33906 ft 491 kts 216°
2026-05-05 09:45 -46.71229 -78.64265 33908 ft 490 kts 217°
2026-05-05 09:45 -46.76984 -78.69547 33903 ft 491 kts 217°
2026-05-05 09:46 -46.82768 -78.74867 33899 ft 491 kts 217°
2026-05-05 09:46 -46.88545 -78.80197 33905 ft 490 kts 217°
2026-05-05 09:47 -46.94285 -78.85505 33905 ft 490 kts 217°
2026-05-05 09:47 -47.00063 -78.90862 33904 ft 490 kts 217°
2026-05-05 09:48 -47.05793 -78.96188 33900 ft 490 kts 217°
2026-05-05 09:48 -47.11551 -79.01554 33905 ft 489 kts 217°
2026-05-05 09:49 -47.17304 -79.06930 33905 ft 489 kts 217°
2026-05-05 09:49 -47.23051 -79.12314 33902 ft 489 kts 217°
2026-05-05 09:50 -47.28754 -79.17671 33900 ft 489 kts 217°
2026-05-05 09:50 -47.34503 -79.23084 33898 ft 488 kts 217°
2026-05-05 09:51 -47.40219 -79.28482 33909 ft 488 kts 217°
2026-05-05 09:51 -47.45920 -79.33877 33904 ft 489 kts 217°
2026-05-05 09:52 -47.51649 -79.39315 33905 ft 489 kts 217°
2026-05-05 09:52 -47.57336 -79.44727 33908 ft 488 kts 217°
2026-05-05 09:53 -47.63061 -79.50189 33903 ft 488 kts 217°
2026-05-05 09:53 -47.68746 -79.55628 33905 ft 488 kts 217°
2026-05-05 09:54 -47.74457 -79.61105 33903 ft 488 kts 217°
2026-05-05 09:54 -47.80177 -79.66607 33906 ft 488 kts 218°
2026-05-05 09:55 -47.85848 -79.72074 33905 ft 488 kts 218°
2026-05-05 09:55 -47.91560 -79.77597 33909 ft 488 kts 218°
2026-05-05 09:56 -47.97221 -79.83084 33898 ft 487 kts 218°
2026-05-05 09:56 -48.02920 -79.88624 33905 ft 487 kts 218°
2026-05-05 09:57 -48.08610 -79.94170 33904 ft 488 kts 218°
2026-05-05 09:57 -48.14260 -79.99690 33903 ft 486 kts 218°
2026-05-05 09:58 -48.19944 -80.05261 33899 ft 487 kts 218°
2026-05-05 09:58 -48.25619 -80.10836 33903 ft 487 kts 218°
2026-05-05 09:59 -48.31249 -80.16382 33901 ft 488 kts 218°
2026-05-05 09:59 -48.36938 -80.22001 33902 ft 487 kts 218°
2026-05-05 10:00 -48.42572 -80.27582 33896 ft 487 kts 218°
2026-05-05 10:00 -48.48235 -80.33206 33896 ft 487 kts 219°
2026-05-05 10:01 -48.53903 -80.38849 33900 ft 487 kts 219°
2026-05-05 10:01 -48.59538 -80.44477 33899 ft 488 kts 219°
2026-05-05 10:02 -48.65210 -80.50156 33896 ft 488 kts 219°
2026-05-05 10:02 -48.70849 -80.55818 33891 ft 489 kts 219°
2026-05-05 10:03 -48.76522 -80.61529 33893 ft 489 kts 219°
2026-05-05 10:03 -48.82198 -80.67260 33894 ft 489 kts 219°
2026-05-05 10:04 -48.87834 -80.72965 33895 ft 489 kts 219°
2026-05-05 10:04 -48.93499 -80.78716 33891 ft 489 kts 219°
2026-05-05 10:05 -48.99133 -80.84451 33892 ft 489 kts 219°
2026-05-05 10:05 -49.04799 -80.90235 33894 ft 489 kts 219°
2026-05-05 10:06 -49.10456 -80.96024 33889 ft 489 kts 219°
2026-05-05 10:06 -49.16106 -81.01825 33895 ft 489 kts 219°
2026-05-05 10:07 -49.21731 -81.07615 33879 ft 490 kts 219°
2026-05-05 10:07 -49.27396 -81.13462 33883 ft 490 kts 219°
2026-05-05 10:08 -49.33059 -81.19325 33885 ft 491 kts 219°
2026-05-05 10:08 -49.38686 -81.25166 33884 ft 491 kts 219°
2026-05-05 10:09 -49.44357 -81.31070 33880 ft 491 kts 219°
2026-05-05 10:09 -49.49983 -81.36943 33878 ft 491 kts 219°
2026-05-05 10:10 -49.55646 -81.42872 33877 ft 491 kts 219°
2026-05-05 10:10 -49.61268 -81.48774 33878 ft 491 kts 219°
2026-05-05 10:11 -49.66914 -81.54720 33875 ft 491 kts 219°
2026-05-05 10:11 -49.72564 -81.60685 33880 ft 491 kts 219°
2026-05-05 10:12 -49.78194 -81.66646 33872 ft 490 kts 219°
2026-05-05 10:12 -49.83798 -81.72600 33868 ft 491 kts 219°
2026-05-05 10:13 -49.89445 -81.78613 33871 ft 491 kts 219°
2026-05-05 10:13 -49.95075 -81.84628 33868 ft 491 kts 219°
2026-05-05 10:14 -50.00679 -81.90630 33867 ft 491 kts 219°
2026-05-05 10:14 -50.06314 -81.96685 33862 ft 491 kts 219°
2026-05-05 10:15 -50.11936 -82.02741 33861 ft 491 kts 219°
2026-05-05 10:15 -50.17536 -82.08792 33854 ft 491 kts 219°
2026-05-05 10:16 -50.23119 -82.14844 33855 ft 491 kts 219°
2026-05-05 10:16 -50.28748 -82.20962 33851 ft 491 kts 219°
2026-05-05 10:17 -50.34323 -82.27039 33849 ft 491 kts 219°
2026-05-05 10:17 -50.39925 -82.33163 33852 ft 490 kts 219°
2026-05-05 10:18 -50.45519 -82.39298 33848 ft 490 kts 219°
2026-05-05 10:18 -50.51113 -82.45449 33842 ft 490 kts 219°
2026-05-05 10:19 -50.56665 -82.51572 33843 ft 490 kts 219°
2026-05-05 10:19 -50.62254 -82.57756 33840 ft 490 kts 219°
2026-05-05 10:20 -50.67806 -82.63916 33836 ft 490 kts 219°
2026-05-05 10:20 -50.73383 -82.70121 33830 ft 489 kts 219°
2026-05-05 10:21 -50.78951 -82.76336 33826 ft 489 kts 219°
2026-05-05 10:21 -50.84488 -82.82534 33827 ft 490 kts 219°
2026-05-05 10:22 -50.90058 -82.88787 33821 ft 489 kts 219°
2026-05-05 10:22 -50.95576 -82.95001 33820 ft 489 kts 219°
2026-05-05 10:23 -51.00995 -83.01513 33836 ft 484 kts 228°
2026-05-05 10:23 -51.05872 -83.08928 33814 ft 486 kts 227°
2026-05-05 10:24 -51.10729 -83.16363 33815 ft 486 kts 227°
2026-05-05 10:24 -51.15609 -83.23833 33801 ft 486 kts 227°
2026-05-05 10:25 -51.20473 -83.31317 33805 ft 486 kts 227°
2026-05-05 10:25 -51.25311 -83.38775 33809 ft 486 kts 227°
2026-05-05 10:26 -51.30167 -83.46287 33810 ft 485 kts 227°
2026-05-05 10:26 -51.34996 -83.53781 33805 ft 486 kts 227°
2026-05-05 10:27 -51.39843 -83.61324 33801 ft 484 kts 228°
2026-05-05 10:27 -51.44675 -83.68869 33799 ft 484 kts 228°
2026-05-05 10:28 -51.49502 -83.76428 33795 ft 484 kts 228°
2026-05-05 10:28 -51.54294 -83.83959 33786 ft 484 kts 228°
2026-05-05 10:29 -51.59116 -83.91558 33793 ft 484 kts 228°
2026-05-05 10:29 -51.63893 -83.99110 33795 ft 484 kts 228°
2026-05-05 10:30 -51.68697 -84.06728 33797 ft 484 kts 228°
2026-05-05 10:30 -51.73500 -84.14371 33794 ft 484 kts 228°
2026-05-05 10:31 -51.78270 -84.21983 33798 ft 484 kts 228°
2026-05-05 10:31 -51.82252 -84.28356 33801 ft 484 kts 228°
2026-05-05 10:32 -51.87818 -84.37293 33795 ft 484 kts 229°
2026-05-05 10:32 -51.91786 -84.43686 33800 ft 484 kts 229°
2026-05-05 10:33 -51.96554 -84.51388 33801 ft 483 kts 229°
2026-05-05 10:33 -52.01330 -84.59127 33801 ft 483 kts 229°
2026-05-05 10:34 -52.06051 -84.66802 33802 ft 483 kts 229°
2026-05-05 10:34 -52.10800 -84.74548 33795 ft 483 kts 229°
2026-05-05 10:35 -52.15549 -84.82319 33799 ft 483 kts 229°
2026-05-05 10:35 -52.20273 -84.90073 33796 ft 483 kts 229°
2026-05-05 10:36 -52.25015 -84.97881 33800 ft 484 kts 229°
2026-05-05 10:36 -52.29731 -85.05671 33775 ft 484 kts 229°
2026-05-05 10:37 -52.34457 -85.13504 33799 ft 483 kts 229°
2026-05-05 10:37 -52.39157 -85.21320 33796 ft 483 kts 229°
2026-05-05 10:38 -52.43878 -85.29194 33803 ft 483 kts 229°
2026-05-05 10:38 -52.48570 -85.37047 33803 ft 484 kts 229°
2026-05-05 10:39 -52.53277 -85.44949 33794 ft 484 kts 229°
2026-05-05 10:39 -52.57996 -85.52899 33809 ft 485 kts 230°
2026-05-05 10:40 -52.62683 -85.60819 33791 ft 485 kts 230°
2026-05-05 10:40 -52.67367 -85.68761 33792 ft 485 kts 230°
2026-05-05 10:41 -52.72074 -85.76768 33797 ft 485 kts 230°
2026-05-05 10:41 -52.76779 -85.84799 33795 ft 485 kts 230°
2026-05-05 10:42 -52.83792 -85.96817 33803 ft 486 kts 230°
2026-05-05 10:43 -52.88498 -86.04915 33803 ft 486 kts 230°
2026-05-05 10:43 -52.93158 -86.12962 33797 ft 486 kts 230°
2026-05-05 10:44 -52.97850 -86.21090 33795 ft 486 kts 230°
2026-05-05 10:44 -53.02499 -86.29171 33799 ft 486 kts 230°
2026-05-05 10:45 -53.07174 -86.37325 33800 ft 486 kts 230°
2026-05-05 10:45 -53.11831 -86.45476 33799 ft 486 kts 230°
2026-05-05 10:46 -53.16457 -86.53598 33798 ft 486 kts 230°
2026-05-05 10:46 -53.21129 -86.61827 33799 ft 486 kts 230°
2026-05-05 10:47 -53.25744 -86.69987 33787 ft 486 kts 231°
2026-05-05 10:47 -53.30390 -86.78228 33792 ft 487 kts 231°
2026-05-05 10:48 -53.35035 -86.86494 33799 ft 487 kts 231°
2026-05-05 10:48 -53.39649 -86.94734 33796 ft 487 kts 231°
2026-05-05 10:49 -53.44289 -87.03048 33788 ft 487 kts 231°
2026-05-05 10:49 -53.48933 -87.11399 33783 ft 488 kts 231°
2026-05-05 10:50 -53.53533 -87.19697 33784 ft 488 kts 231°
2026-05-05 10:50 -53.58155 -87.28065 33794 ft 486 kts 231°
2026-05-05 10:51 -53.62773 -87.36457 33785 ft 489 kts 231°
2026-05-05 10:51 -53.67364 -87.44824 33788 ft 489 kts 231°
2026-05-05 10:52 -53.71985 -87.53279 33784 ft 489 kts 232°
2026-05-05 10:52 -53.76589 -87.61730 33784 ft 490 kts 232°
2026-05-05 10:53 -53.81200 -87.70223 33772 ft 489 kts 232°
2026-05-05 10:53 -53.85774 -87.78680 33781 ft 489 kts 232°
2026-05-05 10:54 -53.90382 -87.87227 33780 ft 489 kts 232°
2026-05-05 10:54 -53.94945 -87.95723 33777 ft 489 kts 232°
2026-05-05 10:55 -53.99533 -88.04294 33775 ft 489 kts 232°
2026-05-05 10:55 -54.04112 -88.12878 33777 ft 488 kts 232°
2026-05-05 10:56 -54.08649 -88.21414 33775 ft 489 kts 232°
2026-05-05 10:56 -54.13223 -88.30048 33774 ft 489 kts 232°
2026-05-05 10:57 -54.17778 -88.38681 33774 ft 489 kts 232°
2026-05-05 10:57 -54.22334 -88.47343 33769 ft 489 kts 233°
2026-05-05 10:58 -54.26859 -88.55980 33771 ft 490 kts 233°
2026-05-05 10:58 -54.31402 -88.64679 33767 ft 489 kts 233°
2026-05-05 10:59 -54.35909 -88.73343 33755 ft 489 kts 233°
2026-05-05 10:59 -54.40437 -88.82076 33764 ft 489 kts 233°
2026-05-05 11:00 -54.44932 -88.90778 33763 ft 489 kts 233°
2026-05-05 11:00 -54.49460 -88.99575 33763 ft 489 kts 233°
2026-05-05 11:01 -54.53939 -89.08308 33762 ft 489 kts 233°
2026-05-05 11:01 -54.58446 -89.17128 33762 ft 489 kts 233°
2026-05-05 11:02 -54.62949 -89.25973 33757 ft 489 kts 233°
2026-05-05 11:02 -54.67415 -89.34776 33755 ft 489 kts 233°
2026-05-05 11:03 -54.71901 -89.43651 33754 ft 489 kts 233°
2026-05-05 11:03 -54.76353 -89.52492 33757 ft 489 kts 234°
2026-05-05 11:04 -54.80829 -89.61412 33752 ft 489 kts 234°
2026-05-05 11:04 -54.85264 -89.70284 33748 ft 489 kts 234°
2026-05-05 11:05 -54.89723 -89.79236 33750 ft 489 kts 234°
2026-05-05 11:05 -54.94180 -89.88216 33746 ft 490 kts 234°
2026-05-05 11:06 -54.98631 -89.97218 33731 ft 490 kts 234°
2026-05-05 11:06 -55.02826 -90.06448 33739 ft 487 kts 237°
2026-05-05 11:07 -55.06962 -90.15859 33742 ft 488 kts 237°
2026-05-05 11:07 -55.11053 -90.25256 33740 ft 488 kts 237°
2026-05-05 11:08 -55.15175 -90.34731 33737 ft 488 kts 237°
2026-05-05 11:08 -55.19276 -90.44210 33730 ft 487 kts 237°
2026-05-05 11:09 -55.23343 -90.53640 33728 ft 487 kts 237°
2026-05-05 11:09 -55.27427 -90.63147 33725 ft 487 kts 237°
2026-05-05 11:10 -55.31471 -90.72597 33728 ft 487 kts 237°
2026-05-05 11:10 -55.35531 -90.82120 33727 ft 487 kts 238°
2026-05-05 11:11 -55.39600 -90.91705 33722 ft 488 kts 238°
2026-05-05 11:11 -55.43635 -91.01242 33720 ft 488 kts 238°
2026-05-05 11:12 -55.47686 -91.10858 33713 ft 488 kts 238°
2026-05-05 11:12 -55.51728 -91.20490 33710 ft 488 kts 238°
2026-05-05 11:13 -55.55738 -91.30082 33713 ft 488 kts 238°
2026-05-05 11:13 -55.59769 -91.39762 33714 ft 488 kts 238°
2026-05-05 11:14 -55.63762 -91.49389 33709 ft 488 kts 238°
2026-05-05 11:14 -55.67787 -91.59131 33712 ft 488 kts 238°
2026-05-05 11:15 -55.71764 -91.68797 33702 ft 488 kts 238°
2026-05-05 11:15 -55.75765 -91.78557 33685 ft 488 kts 238°
2026-05-05 11:16 -55.79736 -91.88284 33699 ft 488 kts 238°
2026-05-05 11:16 -55.83721 -91.98086 33697 ft 489 kts 238°
2026-05-05 11:17 -55.87710 -92.07933 33688 ft 489 kts 239°
2026-05-05 11:17 -55.91687 -92.17793 33694 ft 489 kts 239°
2026-05-05 11:18 -55.95631 -92.27612 33688 ft 489 kts 239°
2026-05-05 11:18 -55.99567 -92.37448 33687 ft 488 kts 239°
2026-05-05 11:19 -56.03516 -92.47356 33685 ft 488 kts 239°
2026-05-05 11:19 -56.07460 -92.57293 33680 ft 489 kts 239°
2026-05-05 11:20 -56.11370 -92.67186 33685 ft 489 kts 239°
2026-05-05 11:20 -56.14641 -92.75491 33678 ft 489 kts 239°
2026-05-05 11:21 -56.19209 -92.87138 33676 ft 489 kts 239°
2026-05-05 11:21 -56.22486 -92.95526 33673 ft 489 kts 239°
2026-05-05 11:22 -56.26369 -93.05506 33673 ft 489 kts 239°
2026-05-05 11:22 -56.30269 -93.15568 33684 ft 489 kts 239°
2026-05-05 11:23 -56.34140 -93.25599 33689 ft 489 kts 239°
2026-05-05 11:23 -56.38025 -93.35706 33685 ft 489 kts 239°
2026-05-05 11:24 -56.41892 -93.45809 33684 ft 489 kts 239°
2026-05-05 11:24 -56.45733 -93.55887 33691 ft 488 kts 239°
2026-05-05 11:25 -56.49571 -93.65998 33683 ft 489 kts 239°
2026-05-05 11:25 -56.53421 -93.76182 33668 ft 488 kts 239°
2026-05-05 11:26 -56.57234 -93.86312 33675 ft 488 kts 239°
2026-05-05 11:26 -56.61070 -93.96546 33680 ft 489 kts 239°
2026-05-05 11:27 -56.64867 -94.06716 33676 ft 488 kts 239°
2026-05-05 11:27 -56.68676 -94.16964 33672 ft 488 kts 239°
2026-05-05 11:28 -56.72453 -94.27168 33670 ft 487 kts 239°
2026-05-05 11:28 -56.76245 -94.37457 33671 ft 488 kts 239°
2026-05-05 11:29 -56.80022 -94.47747 33669 ft 488 kts 239°
2026-05-05 11:29 -56.83774 -94.58015 33670 ft 487 kts 239°
2026-05-05 11:30 -56.87539 -94.68361 33664 ft 487 kts 239°
2026-05-05 11:30 -56.91258 -94.78625 33666 ft 487 kts 239°
2026-05-05 11:31 -56.94996 -94.88984 33665 ft 486 kts 239°
2026-05-05 11:31 -56.98720 -94.99350 33660 ft 486 kts 239°
2026-05-05 11:32 -57.02417 -95.09685 33661 ft 487 kts 239°
2026-05-05 11:32 -57.06129 -95.20106 33661 ft 487 kts 239°
2026-05-05 11:33 -57.09830 -95.30543 33658 ft 486 kts 239°
2026-05-05 11:33 -57.13504 -95.40947 33656 ft 485 kts 239°
2026-05-05 11:34 -57.17175 -95.51389 33655 ft 485 kts 239°
2026-05-05 11:34 -57.20815 -95.61789 33654 ft 484 kts 239°
2026-05-05 11:35 -57.24463 -95.72254 33649 ft 484 kts 239°
2026-05-05 11:35 -57.28106 -95.82752 33649 ft 484 kts 240°
2026-05-05 11:36 -57.31709 -95.93179 33641 ft 484 kts 240°
2026-05-05 11:36 -57.35334 -96.03716 33649 ft 484 kts 240°
2026-05-05 11:37 -57.38925 -96.14203 33648 ft 484 kts 240°
2026-05-05 11:37 -57.42527 -96.24766 33641 ft 483 kts 240°
2026-05-05 11:38 -57.46097 -96.35282 33644 ft 482 kts 240°
2026-05-05 11:38 -57.49667 -96.45846 33651 ft 482 kts 240°
2026-05-05 11:39 -57.53229 -96.56431 33650 ft 481 kts 240°
2026-05-05 11:39 -57.56759 -96.66969 33637 ft 482 kts 240°
2026-05-05 11:40 -57.60300 -96.77584 33635 ft 481 kts 240°
2026-05-05 11:40 -57.63833 -96.88226 33636 ft 481 kts 240°
2026-05-05 11:41 -57.67325 -96.98791 33636 ft 481 kts 240°
2026-05-05 11:41 -57.70825 -97.09426 33637 ft 480 kts 240°
2026-05-05 11:42 -57.74323 -97.20102 33635 ft 479 kts 240°
2026-05-05 11:42 -57.77786 -97.30723 33631 ft 480 kts 240°
2026-05-05 11:43 -57.81263 -97.41431 33635 ft 480 kts 240°
2026-05-05 11:43 -57.84716 -97.52115 33631 ft 480 kts 240°
2026-05-05 11:44 -57.88175 -97.62867 33627 ft 480 kts 240°
2026-05-05 11:44 -57.91594 -97.73539 33625 ft 479 kts 240°
2026-05-05 11:45 -57.95014 -97.84265 33628 ft 479 kts 240°
2026-05-05 11:45 -57.98436 -97.95049 33627 ft 478 kts 240°
2026-05-05 11:46 -58.02038 -98.05496 33617 ft 478 kts 237°
2026-05-05 11:46 -58.05830 -98.15871 33621 ft 478 kts 237°
2026-05-05 11:47 -58.09602 -98.26168 33619 ft 478 kts 237°
2026-05-05 11:47 -58.13376 -98.36547 33617 ft 477 kts 237°
2026-05-05 11:48 -58.18986 -98.52040 33617 ft 476 kts 237°
2026-05-05 11:48 -58.22722 -98.62423 33609 ft 476 kts 237°
2026-05-05 11:49 -58.26430 -98.72766 33612 ft 475 kts 237°
2026-05-05 11:49 -58.30142 -98.83168 33612 ft 475 kts 237°
2026-05-05 11:50 -58.33842 -98.93579 33609 ft 474 kts 237°
2026-05-05 11:50 -58.37509 -99.03945 33608 ft 474 kts 237°
2026-05-05 11:51 -58.41190 -99.14397 33609 ft 474 kts 237°
2026-05-05 11:51 -58.44837 -99.24794 33609 ft 473 kts 237°
2026-05-05 11:52 -58.48504 -99.35297 33603 ft 473 kts 237°
2026-05-05 11:52 -58.52130 -99.45729 33601 ft 472 kts 237°
2026-05-05 11:53 -58.55768 -99.56240 33602 ft 472 kts 237°
2026-05-05 11:53 -58.59361 -99.66670 33599 ft 471 kts 237°
2026-05-05 11:54 -58.62968 -99.77186 33593 ft 470 kts 237°
2026-05-05 11:54 -58.66541 -99.87645 33593 ft 469 kts 238°
2026-05-05 11:55 -58.70113 -99.98152 33595 ft 469 kts 238°
2026-05-05 11:55 -58.73677 -100.08680 33586 ft 468 kts 238°
2026-05-05 11:56 -58.77205 -100.19150 33586 ft 468 kts 238°
2026-05-05 11:56 -58.80739 -100.29683 33583 ft 467 kts 238°
2026-05-05 11:57 -58.84243 -100.40173 33581 ft 466 kts 238°
2026-05-05 11:57 -58.87756 -100.50737 33582 ft 466 kts 238°
2026-05-05 11:58 -58.91240 -100.61265 33577 ft 466 kts 238°
2026-05-05 11:58 -58.94724 -100.71835 33574 ft 466 kts 238°
2026-05-05 11:59 -58.98203 -100.82440 33575 ft 465 kts 238°
2026-05-05 11:59 -59.01654 -100.93005 33570 ft 465 kts 238°
2026-05-05 12:00 -59.05102 -101.03611 33570 ft 464 kts 238°
2026-05-05 12:00 -59.08542 -101.14240 33566 ft 463 kts 238°
2026-05-05 12:01 -59.11974 -101.24891 33567 ft 464 kts 238°
2026-05-05 12:01 -59.15368 -101.35473 33563 ft 463 kts 238°
2026-05-05 12:02 -59.18773 -101.46138 33557 ft 462 kts 238°
2026-05-05 12:02 -59.22172 -101.56832 33554 ft 462 kts 238°
2026-05-05 12:03 -59.25531 -101.67449 33556 ft 462 kts 238°
2026-05-05 12:03 -59.28905 -101.78163 33547 ft 461 kts 238°
2026-05-05 12:04 -59.32248 -101.88827 33546 ft 460 kts 238°
2026-05-05 12:04 -59.35596 -101.99554 33552 ft 461 kts 238°
2026-05-05 12:05 -59.38913 -102.10231 33551 ft 460 kts 239°
2026-05-05 12:05 -59.42231 -102.20963 33544 ft 458 kts 239°
2026-05-05 12:06 -59.45516 -102.31635 33545 ft 458 kts 239°
2026-05-05 12:06 -59.48804 -102.42367 33543 ft 457 kts 239°
2026-05-05 12:07 -59.52081 -102.53113 33537 ft 456 kts 239°
2026-05-05 12:07 -59.55319 -102.63778 33536 ft 455 kts 239°
2026-05-05 12:08 -59.58571 -102.74539 33534 ft 455 kts 239°
2026-05-05 12:08 -59.61807 -102.85300 33531 ft 455 kts 239°
2026-05-05 12:09 -59.65009 -102.95995 33531 ft 455 kts 239°
2026-05-05 12:09 -59.68226 -103.06793 33526 ft 454 kts 239°
2026-05-05 12:10 -59.70881 -103.15738 33521 ft 453 kts 239°
2026-05-05 12:10 -59.74589 -103.28295 33519 ft 453 kts 240°
2026-05-05 12:11 -59.77233 -103.37292 33513 ft 453 kts 240°
2026-05-05 12:11 -59.80397 -103.48102 33511 ft 453 kts 240°
2026-05-05 12:12 -59.83563 -103.58969 33706 ft 454 kts 240°
2026-05-05 12:12 -59.86709 -103.69821 33911 ft 455 kts 240°
2026-05-05 12:13 -59.88289 -103.75290 34044 ft 455 kts 240°
2026-05-05 12:13 -59.89867 -103.80763 34143 ft 456 kts 240°
2026-05-05 12:13 -59.91443 -103.86245 34272 ft 456 kts 240°
2026-05-05 12:13 -59.93025 -103.91759 34381 ft 456 kts 240°
2026-05-05 12:14 -59.94599 -103.97260 34499 ft 457 kts 240°
2026-05-05 12:14 -59.96171 -104.02769 34611 ft 457 kts 240°
2026-05-05 12:14 -59.97751 -104.08316 34729 ft 458 kts 241°
2026-05-05 12:14 -59.99310 -104.13802 34851 ft 458 kts 241°
2026-05-05 12:15 -60.02390 -104.24686 35060 ft 459 kts 241°
2026-05-05 12:15 -60.03963 -104.30262 35162 ft 459 kts 241°
2026-05-05 12:15 -60.05530 -104.35830 35266 ft 459 kts 241°
2026-05-05 12:16 -60.07081 -104.41358 35390 ft 460 kts 241°
2026-05-05 12:16 -60.08646 -104.46947 35484 ft 460 kts 241°
2026-05-05 12:16 -60.11789 -104.58212 35481 ft 462 kts 242°
2026-05-05 12:17 -60.14911 -104.69459 35473 ft 460 kts 242°
2026-05-05 12:17 -60.17994 -104.80621 35469 ft 459 kts 242°
2026-05-05 12:18 -60.21086 -104.91871 35469 ft 459 kts 242°
2026-05-05 12:18 -60.24162 -105.03118 35463 ft 458 kts 242°
2026-05-05 12:19 -60.27212 -105.14327 35460 ft 458 kts 242°
2026-05-05 12:19 -60.30273 -105.25629 35459 ft 458 kts 242°
2026-05-05 12:20 -60.33304 -105.36879 35456 ft 458 kts 242°
2026-05-05 12:20 -60.36341 -105.48208 35450 ft 458 kts 242°
2026-05-05 12:21 -60.39348 -105.59484 35454 ft 458 kts 242°
2026-05-05 12:21 -60.42370 -105.70869 35451 ft 458 kts 243°
2026-05-05 12:22 -60.45363 -105.82203 35449 ft 458 kts 243°
2026-05-05 12:22 -60.48363 -105.93621 35451 ft 459 kts 243°
2026-05-05 12:23 -60.51359 -106.05083 35431 ft 459 kts 243°
2026-05-05 12:23 -60.54320 -106.16472 35424 ft 458 kts 243°
2026-05-05 12:24 -60.57288 -106.27943 35425 ft 457 kts 243°
2026-05-05 12:24 -60.60242 -106.39421 35422 ft 457 kts 243°
2026-05-05 12:25 -60.63185 -106.50915 35421 ft 458 kts 243°
2026-05-05 12:25 -60.66101 -106.62358 35417 ft 456 kts 244°
2026-05-05 12:26 -60.69026 -106.73903 35411 ft 457 kts 244°
2026-05-05 12:26 -60.71944 -106.85477 35408 ft 458 kts 244°
2026-05-05 12:27 -60.74833 -106.96996 35406 ft 457 kts 244°
2026-05-05 12:27 -60.77728 -107.08600 35407 ft 458 kts 244°
2026-05-05 12:28 -60.80602 -107.20180 35399 ft 458 kts 244°
2026-05-05 12:28 -60.83485 -107.31861 35398 ft 458 kts 244°
2026-05-05 12:29 -60.86362 -107.43577 35395 ft 459 kts 245°
2026-05-05 12:29 -60.89209 -107.55235 35390 ft 459 kts 245°
2026-05-05 12:30 -60.92067 -107.67000 35382 ft 460 kts 245°
2026-05-05 12:30 -60.94902 -107.78729 35377 ft 460 kts 245°
2026-05-05 12:31 -60.97751 -107.90588 35380 ft 460 kts 245°
2026-05-05 12:31 -61.00572 -108.02391 35372 ft 461 kts 245°
2026-05-05 12:32 -61.03369 -108.14310 35368 ft 461 kts 246°
2026-05-05 12:32 -61.06147 -108.26175 35365 ft 461 kts 246°
2026-05-05 12:33 -61.08934 -108.38156 35357 ft 461 kts 246°
2026-05-05 12:33 -61.11687 -108.50058 35350 ft 461 kts 246°
2026-05-05 12:34 -61.14451 -108.62069 35348 ft 460 kts 246°
2026-05-05 12:34 -61.17195 -108.74061 35344 ft 461 kts 246°
2026-05-05 12:35 -61.19919 -108.86035 35340 ft 461 kts 246°
2026-05-05 12:35 -61.22652 -108.98113 35336 ft 461 kts 247°
2026-05-05 12:36 -61.25352 -109.10118 35329 ft 461 kts 247°
2026-05-05 12:36 -61.28060 -109.22223 35321 ft 461 kts 247°
2026-05-05 12:37 -61.30757 -109.34348 35316 ft 462 kts 247°
2026-05-05 12:37 -61.33432 -109.46444 35309 ft 462 kts 248°
2026-05-05 12:38 -61.36108 -109.58613 35303 ft 461 kts 248°
2026-05-05 12:38 -61.38773 -109.70808 35296 ft 461 kts 248°
2026-05-05 12:39 -61.41429 -109.83028 35288 ft 462 kts 248°
2026-05-05 12:39 -61.44058 -109.95191 35289 ft 461 kts 248°
2026-05-05 12:40 -61.46697 -110.07481 35285 ft 462 kts 248°
2026-05-05 12:40 -61.49309 -110.19708 35276 ft 462 kts 248°
2026-05-05 12:41 -61.51924 -110.32027 35270 ft 462 kts 248°
2026-05-05 12:41 -61.54519 -110.44320 35260 ft 463 kts 249°
2026-05-05 12:42 -61.57115 -110.56697 35253 ft 461 kts 249°
2026-05-05 12:42 -61.59680 -110.68998 35246 ft 462 kts 249°
2026-05-05 12:43 -61.62255 -110.81416 35241 ft 463 kts 249°
2026-05-05 12:43 -61.64802 -110.93780 35245 ft 464 kts 249°
2026-05-05 12:44 -61.67364 -111.06285 35230 ft 464 kts 249°
2026-05-05 12:44 -61.69913 -111.18811 35220 ft 464 kts 249°
2026-05-05 12:45 -61.72437 -111.31288 35198 ft 465 kts 250°
2026-05-05 12:45 -61.74964 -111.43854 35197 ft 465 kts 250°
2026-05-05 12:46 -61.77470 -111.56395 35192 ft 465 kts 250°
2026-05-05 12:46 -61.79978 -111.69024 35188 ft 465 kts 250°
2026-05-05 12:47 -61.82457 -111.81584 35179 ft 464 kts 250°
2026-05-05 12:47 -61.84938 -111.94237 35173 ft 466 kts 250°
2026-05-05 12:48 -61.87405 -112.06892 35171 ft 466 kts 250°
2026-05-05 12:48 -61.89870 -112.19628 35160 ft 466 kts 250°
2026-05-05 12:49 -61.92313 -112.32320 35150 ft 466 kts 251°
2026-05-05 12:49 -61.94756 -112.45097 35144 ft 466 kts 251°
2026-05-05 12:50 -61.97189 -112.57908 35137 ft 468 kts 251°
2026-05-05 12:50 -61.99600 -112.70683 35130 ft 468 kts 251°
2026-05-05 12:51 -62.02025 -112.83613 35123 ft 469 kts 251°
2026-05-05 12:51 -62.04422 -112.96481 35114 ft 469 kts 251°
2026-05-05 12:52 -62.06824 -113.09463 35106 ft 470 kts 251°
2026-05-05 12:52 -62.09199 -113.22382 35099 ft 470 kts 252°
2026-05-05 12:53 -62.11577 -113.35409 35089 ft 470 kts 252°
2026-05-05 12:53 -62.13940 -113.48434 35073 ft 469 kts 252°
2026-05-05 12:54 -62.17453 -113.67972 35067 ft 470 kts 252°
2026-05-05 12:55 -62.19771 -113.80966 35063 ft 470 kts 252°
2026-05-05 12:55 -62.22095 -113.94091 35055 ft 471 kts 252°
2026-05-05 12:56 -62.24408 -114.07241 35040 ft 470 kts 252°
2026-05-05 12:56 -62.26694 -114.20328 35038 ft 470 kts 253°
2026-05-05 12:57 -62.28984 -114.33525 35028 ft 471 kts 253°
2026-05-05 12:57 -62.31265 -114.46770 35017 ft 472 kts 253°
2026-05-05 12:58 -62.33528 -114.59995 35010 ft 472 kts 253°
2026-05-05 12:58 -62.35776 -114.73232 34997 ft 473 kts 253°
2026-05-05 12:59 -62.38031 -114.86605 34984 ft 474 kts 253°
2026-05-05 12:59 -62.39895 -114.97727 34984 ft 474 kts 253°
2026-05-05 13:00 -62.43233 -115.17823 34971 ft 473 kts 254°
2026-05-05 13:01 -62.47637 -115.44675 34952 ft 475 kts 254°
2026-05-05 13:01 -62.49826 -115.58166 34941 ft 475 kts 254°
2026-05-05 13:02 -62.51994 -115.71631 34934 ft 476 kts 254°
2026-05-05 13:02 -62.54162 -115.85197 34921 ft 475 kts 255°
2026-05-05 13:03 -62.56304 -115.98702 34914 ft 475 kts 255°
2026-05-05 13:03 -62.58430 -116.12209 34908 ft 476 kts 255°
2026-05-05 13:04 -62.60556 -116.25812 34902 ft 476 kts 255°
2026-05-05 13:04 -62.62671 -116.39454 34887 ft 476 kts 255°
2026-05-05 13:05 -62.64777 -116.53142 34890 ft 477 kts 255°
2026-05-05 13:05 -62.66875 -116.66886 34885 ft 478 kts 255°
2026-05-05 13:06 -62.68953 -116.80607 34875 ft 479 kts 255°
2026-05-05 13:06 -62.71027 -116.94411 34867 ft 479 kts 256°
2026-05-05 13:07 -62.73076 -117.08152 34863 ft 479 kts 256°
2026-05-05 13:07 -62.75130 -117.22038 34856 ft 479 kts 256°
2026-05-05 13:08 -62.77154 -117.35833 34851 ft 479 kts 256°
2026-05-05 13:08 -62.79173 -117.49713 34837 ft 479 kts 256°
2026-05-05 13:09 -62.81174 -117.63576 34838 ft 480 kts 256°
2026-05-05 13:09 -62.83172 -117.77530 34826 ft 480 kts 256°
2026-05-05 13:10 -62.85162 -117.91547 34821 ft 481 kts 257°
2026-05-05 13:10 -62.87125 -118.05492 34812 ft 482 kts 257°
2026-05-05 13:11 -62.89096 -118.19604 34810 ft 482 kts 257°
2026-05-05 13:11 -62.91037 -118.33627 34792 ft 483 kts 257°
2026-05-05 13:12 -62.92980 -118.47784 34789 ft 483 kts 257°
2026-05-05 13:12 -62.94896 -118.61864 34784 ft 483 kts 257°
2026-05-05 13:13 -62.96809 -118.76042 34780 ft 483 kts 257°
2026-05-05 13:13 -62.98698 -118.90174 34775 ft 484 kts 257°
2026-05-05 13:14 -63.00890 -119.04175 34780 ft 489 kts 249°
2026-05-05 13:14 -63.03776 -119.17823 34760 ft 491 kts 249°
2026-05-05 13:15 -63.06664 -119.31536 34746 ft 492 kts 249°
2026-05-05 13:15 -63.09513 -119.45193 34752 ft 493 kts 249°
2026-05-05 13:16 -63.12374 -119.58969 34744 ft 493 kts 250°
2026-05-05 13:16 -63.15200 -119.72689 34739 ft 493 kts 250°
2026-05-05 13:17 -63.18037 -119.86537 34736 ft 492 kts 250°
2026-05-05 13:17 -63.20851 -120.00376 34726 ft 493 kts 250°
2026-05-05 13:18 -63.23640 -120.14184 34723 ft 493 kts 250°
2026-05-05 13:18 -63.26439 -120.28134 34717 ft 494 kts 250°
2026-05-05 13:19 -63.29227 -120.42122 34713 ft 494 kts 250°
2026-05-05 13:19 -63.31988 -120.56072 34706 ft 495 kts 250°
2026-05-05 13:20 -63.34760 -120.70175 34701 ft 496 kts 250°
2026-05-05 13:20 -63.37506 -120.84240 34700 ft 497 kts 250°
2026-05-05 13:21 -63.40253 -120.98409 34690 ft 498 kts 250°
2026-05-05 13:21 -63.43001 -121.12685 34687 ft 497 kts 251°
2026-05-05 13:22 -63.45704 -121.26829 34679 ft 498 kts 251°
2026-05-05 13:22 -63.48417 -121.41125 34676 ft 498 kts 251°
2026-05-05 13:23 -63.51105 -121.55392 34662 ft 498 kts 251°
2026-05-05 13:23 -63.53774 -121.69655 34667 ft 498 kts 251°
2026-05-05 13:24 -63.56441 -121.84021 34659 ft 498 kts 251°
2026-05-05 13:24 -63.59097 -121.98422 34653 ft 498 kts 251°
2026-05-05 13:25 -63.61718 -122.12744 34648 ft 498 kts 251°
2026-05-05 13:25 -63.64347 -122.27209 34644 ft 499 kts 252°
2026-05-05 13:26 -63.66950 -122.41642 34638 ft 500 kts 252°
2026-05-05 13:26 -63.69555 -122.56196 34628 ft 500 kts 252°
2026-05-05 13:27 -63.72145 -122.70768 34624 ft 500 kts 252°
2026-05-05 13:27 -63.74708 -122.85301 34621 ft 500 kts 252°
2026-05-05 13:28 -63.77275 -122.99965 34608 ft 500 kts 252°
2026-05-05 13:28 -63.79810 -123.14558 34605 ft 501 kts 252°
2026-05-05 13:29 -63.82342 -123.29255 34596 ft 501 kts 252°
2026-05-05 13:29 -63.84864 -123.44001 34592 ft 501 kts 252°
2026-05-05 13:30 -63.87356 -123.58671 34588 ft 501 kts 252°
2026-05-05 13:30 -63.89848 -123.73471 34571 ft 501 kts 253°
2026-05-05 13:31 -63.92324 -123.88281 34573 ft 501 kts 253°
2026-05-05 13:31 -63.94770 -124.03045 34575 ft 500 kts 253°
2026-05-05 13:32 -63.97216 -124.17908 34571 ft 500 kts 253°
2026-05-05 13:32 -63.99629 -124.32705 34555 ft 500 kts 253°
2026-05-05 13:33 -64.02044 -124.47610 34554 ft 500 kts 253°
2026-05-05 13:33 -64.04431 -124.62482 34552 ft 500 kts 253°
2026-05-05 13:34 -64.06811 -124.77421 34543 ft 500 kts 253°
2026-05-05 13:34 -64.09181 -124.92420 34540 ft 500 kts 254°
2026-05-05 13:35 -64.11513 -125.07320 34541 ft 500 kts 254°
2026-05-05 13:35 -64.13851 -125.22328 34532 ft 499 kts 254°
2026-05-05 13:36 -64.16167 -125.37389 34528 ft 499 kts 254°
2026-05-05 13:36 -64.18454 -125.52341 34521 ft 499 kts 254°
2026-05-05 13:37 -64.20740 -125.67423 34518 ft 499 kts 254°
2026-05-05 13:37 -64.22994 -125.82435 34517 ft 499 kts 255°
2026-05-05 13:38 -64.25249 -125.97545 34512 ft 498 kts 255°
2026-05-05 13:38 -64.27481 -126.12664 34509 ft 498 kts 255°
2026-05-05 13:39 -64.29684 -126.27719 34507 ft 498 kts 255°
2026-05-05 13:39 -64.31888 -126.42889 34504 ft 498 kts 255°
2026-05-05 13:40 -64.34070 -126.58044 34500 ft 498 kts 255°
2026-05-05 13:40 -64.36230 -126.73186 34501 ft 498 kts 255°
2026-05-05 13:41 -64.38383 -126.88420 34498 ft 497 kts 256°
2026-05-05 13:41 -64.40508 -127.03569 34502 ft 496 kts 255°
2026-05-05 13:42 -64.42622 -127.18785 34498 ft 495 kts 256°
2026-05-05 13:42 -64.44705 -127.33904 34499 ft 495 kts 256°
2026-05-05 13:43 -64.46786 -127.49168 34498 ft 495 kts 256°
2026-05-05 13:43 -64.48854 -127.64471 34495 ft 496 kts 256°
2026-05-05 13:44 -64.50891 -127.79669 34495 ft 495 kts 256°
2026-05-05 13:44 -64.52923 -127.94980 34499 ft 496 kts 256°
2026-05-05 13:45 -64.54939 -128.10326 34501 ft 495 kts 256°
2026-05-05 13:45 -64.56932 -128.25588 34498 ft 495 kts 257°
2026-05-05 13:46 -64.58915 -128.40994 34501 ft 495 kts 256°
2026-05-05 13:46 -64.60870 -128.56271 34487 ft 494 kts 257°
2026-05-05 13:47 -64.62822 -128.71698 34495 ft 494 kts 257°
2026-05-05 13:47 -64.64430 -128.84490 34496 ft 494 kts 257°
2026-05-05 13:48 -64.66334 -128.99819 34503 ft 494 kts 257°
2026-05-05 13:48 -64.68237 -129.15267 34504 ft 494 kts 257°
2026-05-05 13:49 -64.70119 -129.30718 34502 ft 493 kts 257°
2026-05-05 13:49 -64.71977 -129.46073 34508 ft 493 kts 257°
2026-05-05 13:50 -64.73822 -129.61551 34506 ft 493 kts 257°
2026-05-05 13:50 -64.75661 -129.77062 34506 ft 493 kts 257°
2026-05-05 13:51 -64.77464 -129.92481 34512 ft 493 kts 257°
2026-05-05 13:51 -64.79269 -130.08041 34510 ft 493 kts 258°
2026-05-05 13:52 -64.81054 -130.23601 34512 ft 492 kts 258°
2026-05-05 13:52 -64.82807 -130.39043 34515 ft 492 kts 258°
2026-05-05 13:53 -64.84559 -130.54642 34515 ft 491 kts 258°
2026-05-05 13:53 -64.86283 -130.70139 34518 ft 491 kts 258°
2026-05-05 13:54 -64.87993 -130.85672 34519 ft 490 kts 258°
2026-05-05 13:54 -64.89686 -131.01254 34524 ft 490 kts 258°
2026-05-05 13:55 -64.91350 -131.16733 34534 ft 492 kts 258°
2026-05-05 13:55 -64.93015 -131.32349 34535 ft 490 kts 258°
2026-05-05 13:56 -64.94655 -131.47950 34537 ft 489 kts 258°
2026-05-05 13:56 -64.96274 -131.63498 34542 ft 489 kts 258°
2026-05-05 13:57 -64.97883 -131.79136 34548 ft 489 kts 258°
2026-05-05 13:57 -64.99476 -131.94787 34555 ft 492 kts 258°
2026-05-05 13:58 -65.00119 -132.02733 34680 ft 489 kts 266°
2026-05-05 13:58 -65.00459 -132.10653 34789 ft 490 kts 266°
2026-05-05 13:58 -65.00809 -132.18676 34921 ft 490 kts 266°
2026-05-05 13:58 -65.01146 -132.26687 35120 ft 488 kts 266°
2026-05-05 13:59 -65.01799 -132.42641 35413 ft 488 kts 266°
2026-05-05 13:59 -65.02126 -132.50639 35561 ft 488 kts 266°
2026-05-05 14:00 -65.02758 -132.66611 35890 ft 486 kts 266°
2026-05-05 14:00 -65.03067 -132.74573 36021 ft 486 kts 266°
2026-05-05 14:00 -65.03373 -132.82560 36187 ft 485 kts 266°
2026-05-05 14:00 -65.03674 -132.90524 36333 ft 485 kts 266°
2026-05-05 14:01 -65.03969 -132.98480 36500 ft 484 kts 266°
2026-05-05 14:01 -65.04259 -133.06361 36565 ft 485 kts 266°
2026-05-05 14:01 -65.04829 -133.22251 36567 ft 481 kts 266°
2026-05-05 14:02 -65.05373 -133.37892 36576 ft 477 kts 266°
2026-05-05 14:02 -65.05901 -133.53544 36576 ft 476 kts 266°
2026-05-05 14:03 -65.06414 -133.69231 36580 ft 477 kts 266°
2026-05-05 14:03 -65.06908 -133.84843 36593 ft 476 kts 266°
2026-05-05 14:04 -65.07387 -134.00525 36597 ft 476 kts 266°
2026-05-05 14:04 -65.07848 -134.16155 36605 ft 478 kts 266°
2026-05-05 14:05 -65.08295 -134.31841 36618 ft 478 kts 266°
2026-05-05 14:05 -65.08728 -134.47637 36628 ft 479 kts 266°
2026-05-05 14:06 -65.09141 -134.63334 36639 ft 479 kts 267°
2026-05-05 14:06 -65.09541 -134.79132 36636 ft 479 kts 267°
2026-05-05 14:07 -65.09922 -134.94860 36642 ft 479 kts 267°
2026-05-05 14:07 -65.10288 -135.10645 36652 ft 478 kts 267°
2026-05-05 14:08 -65.10636 -135.26377 36650 ft 477 kts 267°
2026-05-05 14:08 -65.10967 -135.42114 36660 ft 477 kts 267°
2026-05-05 14:09 -65.11282 -135.57873 36657 ft 477 kts 267°
2026-05-05 14:09 -65.11580 -135.73575 36670 ft 477 kts 267°
2026-05-05 14:10 -65.11860 -135.89232 36665 ft 476 kts 267°
2026-05-05 14:10 -65.12126 -136.04955 36682 ft 476 kts 268°
2026-05-05 14:11 -65.12374 -136.20705 36681 ft 477 kts 268°
2026-05-05 14:11 -65.12606 -136.36381 36686 ft 477 kts 268°
2026-05-05 14:12 -65.12822 -136.52187 36696 ft 478 kts 268°
2026-05-05 14:12 -65.13022 -136.67925 36710 ft 479 kts 268°
2026-05-05 14:13 -65.13205 -136.83791 36717 ft 480 kts 268°
2026-05-05 14:13 -65.13373 -136.99613 36720 ft 481 kts 268°
2026-05-05 14:14 -65.13523 -137.15451 36732 ft 481 kts 268°
2026-05-05 14:14 -65.13657 -137.31378 36735 ft 482 kts 268°
2026-05-05 14:15 -65.13775 -137.47354 36738 ft 482 kts 268°
2026-05-05 14:15 -65.13875 -137.63246 36744 ft 483 kts 268°
2026-05-05 14:16 -65.13959 -137.79221 36748 ft 483 kts 268°
2026-05-05 14:16 -65.14025 -137.95125 36755 ft 483 kts 268°
2026-05-05 14:17 -65.14075 -138.11102 36767 ft 481 kts 268°
2026-05-05 14:17 -65.14108 -138.27021 36780 ft 481 kts 268°
2026-05-05 14:18 -65.14124 -138.42902 36790 ft 480 kts 268°
2026-05-05 14:18 -65.14124 -138.58712 36799 ft 479 kts 268°
2026-05-05 14:19 -65.14105 -138.74464 36812 ft 477 kts 268°
2026-05-05 14:19 -65.14072 -138.90269 36813 ft 477 kts 268°
2026-05-05 14:20 -65.14019 -139.06048 36831 ft 476 kts 268°
2026-05-05 14:20 -65.13955 -139.21721 36844 ft 476 kts 268°
2026-05-05 14:21 -65.13869 -139.37511 36843 ft 476 kts 268°
2026-05-05 14:21 -65.13771 -139.53178 36855 ft 477 kts 268°
2026-05-05 14:22 -65.13654 -139.68956 36865 ft 476 kts 269°
2026-05-05 14:22 -65.13522 -139.84609 36878 ft 475 kts 268°
2026-05-05 14:23 -65.13373 -140.00287 36889 ft 473 kts 268°
2026-05-05 14:23 -65.13208 -140.15954 36895 ft 474 kts 269°
2026-05-05 14:24 -65.13028 -140.31597 36903 ft 475 kts 269°
2026-05-05 14:24 -65.12829 -140.47230 36918 ft 477 kts 269°
2026-05-05 14:25 -65.12615 -140.63045 36926 ft 478 kts 269°
2026-05-05 14:25 -65.12382 -140.78778 36937 ft 479 kts 269°
2026-05-05 14:26 -65.12132 -140.94639 36945 ft 480 kts 269°
2026-05-05 14:26 -65.11864 -141.10469 36952 ft 478 kts 269°
2026-05-05 14:27 -65.11584 -141.26227 36955 ft 479 kts 269°
2026-05-05 14:27 -65.11284 -141.41938 36967 ft 479 kts 269°
2026-05-05 14:28 -65.10971 -141.57777 36980 ft 479 kts 269°
2026-05-05 14:28 -65.10634 -141.73638 36982 ft 481 kts 269°
2026-05-05 14:29 -65.10285 -141.89413 36998 ft 482 kts 270°
2026-05-05 14:29 -65.09917 -142.05356 37006 ft 483 kts 270°
2026-05-05 14:30 -65.09529 -142.21314 37014 ft 485 kts 270°
2026-05-05 14:30 -65.09125 -142.37237 37023 ft 485 kts 270°
2026-05-05 14:31 -65.08704 -142.53263 37027 ft 485 kts 270°
2026-05-05 14:31 -65.08266 -142.69165 37036 ft 485 kts 270°
2026-05-05 14:32 -65.07811 -142.85118 37039 ft 485 kts 270°
2026-05-05 14:32 -65.07338 -143.01100 37049 ft 486 kts 270°
2026-05-05 14:33 -65.06848 -143.17016 37054 ft 486 kts 270°
2026-05-05 14:33 -65.06341 -143.33054 37059 ft 487 kts 271°
2026-05-05 14:34 -65.05817 -143.48954 37071 ft 487 kts 271°
2026-05-05 14:34 -65.05275 -143.64991 37078 ft 487 kts 271°
2026-05-05 14:35 -65.04715 -143.80932 37085 ft 487 kts 271°
2026-05-05 14:35 -65.04137 -143.96972 37093 ft 488 kts 271°
2026-05-05 14:36 -65.03540 -144.13013 37101 ft 489 kts 271°
2026-05-05 14:36 -65.02929 -144.28986 37102 ft 490 kts 271°
2026-05-05 14:37 -65.02405 -144.42344 37113 ft 490 kts 271°
2026-05-05 14:37 -65.01758 -144.58415 37123 ft 490 kts 271°
2026-05-05 14:38 -65.01096 -144.74423 37131 ft 490 kts 271°
2026-05-05 14:38 -65.00416 -144.90444 37127 ft 490 kts 272°
2026-05-05 14:39 -64.99353 -145.06389 37150 ft 494 kts 279°
2026-05-05 14:39 -64.97757 -145.22118 37155 ft 495 kts 279°
2026-05-05 14:40 -64.96122 -145.37948 37157 ft 495 kts 279°
2026-05-05 14:40 -64.94480 -145.53730 37159 ft 495 kts 279°
2026-05-05 14:41 -64.92827 -145.69395 37162 ft 495 kts 279°
2026-05-05 14:41 -64.91145 -145.85186 37172 ft 494 kts 279°
2026-05-05 14:42 -64.89459 -146.00831 37178 ft 495 kts 279°
2026-05-05 14:42 -64.87756 -146.16463 37184 ft 495 kts 280°
2026-05-05 14:43 -64.86026 -146.32166 37194 ft 495 kts 280°
2026-05-05 14:43 -64.84279 -146.47862 37201 ft 495 kts 280°
2026-05-05 14:44 -64.82529 -146.63413 37206 ft 495 kts 280°
2026-05-05 14:44 -64.80750 -146.79057 37208 ft 495 kts 280°
2026-05-05 14:45 -64.78953 -146.94684 37217 ft 494 kts 280°
2026-05-05 14:45 -64.77159 -147.10138 37216 ft 494 kts 280°
2026-05-05 14:46 -64.75333 -147.25700 37225 ft 494 kts 281°
2026-05-05 14:46 -64.73501 -147.41151 37232 ft 493 kts 281°
2026-05-05 14:47 -64.71647 -147.56635 37247 ft 493 kts 281°
2026-05-05 14:47 -64.69780 -147.72073 37241 ft 492 kts 281°
2026-05-05 14:48 -64.67907 -147.87408 37255 ft 492 kts 281°
2026-05-05 14:48 -64.66009 -148.02796 37257 ft 492 kts 281°
2026-05-05 14:49 -64.64095 -148.18157 37266 ft 492 kts 281°
2026-05-05 14:49 -64.62178 -148.33402 37266 ft 492 kts 281°
2026-05-05 14:50 -64.60234 -148.48709 37277 ft 491 kts 281°
2026-05-05 14:50 -64.58287 -148.63897 37285 ft 491 kts 281°
2026-05-05 14:51 -64.56314 -148.79142 37283 ft 492 kts 282°
2026-05-05 14:51 -64.54325 -148.94366 37293 ft 492 kts 282°
2026-05-05 14:52 -64.52327 -149.09513 37296 ft 492 kts 282°
2026-05-05 14:52 -64.50301 -149.24743 37301 ft 493 kts 282°
2026-05-05 14:53 -64.48274 -149.39827 37313 ft 492 kts 282°
2026-05-05 14:53 -64.46219 -149.54997 37314 ft 492 kts 282°
2026-05-05 14:54 -64.44149 -149.70126 37326 ft 492 kts 282°
2026-05-05 14:54 -64.42075 -149.85151 37333 ft 491 kts 282°
2026-05-05 14:55 -64.39981 -150.00195 37334 ft 490 kts 282°
2026-05-05 14:55 -64.37871 -150.15215 37337 ft 490 kts 282°
2026-05-05 14:56 -64.35761 -150.30100 37340 ft 490 kts 283°
2026-05-05 14:56 -64.33625 -150.45043 37356 ft 490 kts 283°
2026-05-05 14:57 -64.31470 -150.59995 37366 ft 491 kts 283°
2026-05-05 14:57 -64.29296 -150.74940 37363 ft 491 kts 283°
2026-05-05 14:58 -64.27128 -150.89718 37367 ft 490 kts 283°
2026-05-05 14:58 -64.24930 -151.04577 37375 ft 489 kts 283°
2026-05-05 14:59 -64.22729 -151.19337 37377 ft 490 kts 283°
2026-05-05 14:59 -64.20506 -151.34113 37379 ft 489 kts 283°
2026-05-05 15:00 -64.18643 -151.46407 37389 ft 490 kts 284°
2026-05-05 15:00 -64.16004 -151.63670 37401 ft 490 kts 284°
2026-05-05 15:01 -64.13744 -151.78330 37395 ft 490 kts 284°
2026-05-05 15:01 -64.11469 -151.92966 37408 ft 489 kts 284°
2026-05-05 15:02 -64.09173 -152.07617 37414 ft 489 kts 284°
2026-05-05 15:02 -64.06858 -152.22270 37424 ft 489 kts 284°
2026-05-05 15:03 -64.04543 -152.36808 37435 ft 488 kts 284°
2026-05-05 15:03 -64.02200 -152.51408 37432 ft 488 kts 284°
2026-05-05 15:04 -63.99861 -152.65869 37436 ft 488 kts 284°
2026-05-05 15:04 -63.97491 -152.80405 37441 ft 489 kts 284°
2026-05-05 15:05 -63.93923 -153.02072 37447 ft 488 kts 284°
2026-05-05 15:06 -63.91517 -153.16547 37458 ft 488 kts 285°
2026-05-05 15:06 -63.89115 -153.30885 37462 ft 488 kts 285°
2026-05-05 15:07 -63.86683 -153.45293 37464 ft 488 kts 285°
2026-05-05 15:07 -63.84243 -153.59638 37471 ft 487 kts 285°
2026-05-05 15:08 -63.81806 -153.73858 37481 ft 486 kts 285°
2026-05-05 15:08 -63.79339 -153.88150 37481 ft 486 kts 285°
2026-05-05 15:09 -63.76877 -154.02306 37490 ft 486 kts 285°
2026-05-05 15:09 -63.74392 -154.16489 37503 ft 485 kts 285°
2026-05-05 15:10 -63.71889 -154.30668 37500 ft 486 kts 285°
2026-05-05 15:10 -63.69364 -154.44867 37504 ft 486 kts 285°
2026-05-05 15:11 -63.66843 -154.58940 37509 ft 486 kts 285°
2026-05-05 15:11 -63.64293 -154.73077 37512 ft 485 kts 285°
2026-05-05 15:12 -63.61756 -154.87038 37521 ft 485 kts 286°
2026-05-05 15:12 -63.59182 -155.01105 37520 ft 485 kts 286°
2026-05-05 15:13 -63.56601 -155.15104 37526 ft 484 kts 286°
2026-05-05 15:13 -63.54026 -155.28979 37527 ft 483 kts 286°
2026-05-05 15:14 -63.51423 -155.42906 37534 ft 483 kts 286°
2026-05-05 15:14 -63.48823 -155.56719 37542 ft 485 kts 286°
2026-05-05 15:15 -63.46179 -155.70661 37541 ft 485 kts 286°
2026-05-05 15:15 -63.43533 -155.84528 37547 ft 485 kts 286°
2026-05-05 15:16 -63.40893 -155.98264 37551 ft 484 kts 287°
2026-05-05 15:16 -63.38215 -156.12102 37556 ft 484 kts 287°
2026-05-05 15:17 -63.35536 -156.25855 37557 ft 485 kts 287°
2026-05-05 15:17 -63.32832 -156.39638 37565 ft 484 kts 287°
2026-05-05 15:18 -63.30134 -156.53300 37570 ft 485 kts 287°
2026-05-05 15:18 -63.27399 -156.67053 37571 ft 484 kts 287°
2026-05-05 15:19 -63.24677 -156.80651 37569 ft 484 kts 287°
2026-05-05 15:19 -63.21924 -156.94315 37573 ft 485 kts 287°
2026-05-05 15:20 -63.19156 -157.07961 37577 ft 484 kts 287°
2026-05-05 15:20 -63.16393 -157.21490 37579 ft 484 kts 287°
2026-05-05 15:21 -63.13607 -157.35045 37584 ft 483 kts 287°
2026-05-05 15:21 -63.10804 -157.48592 37583 ft 483 kts 287°
2026-05-05 15:22 -63.07997 -157.62076 37587 ft 483 kts 287°
2026-05-05 15:22 -63.05185 -157.75491 37594 ft 483 kts 288°
2026-05-05 15:23 -63.02343 -157.88963 37600 ft 483 kts 288°
2026-05-05 15:23 -62.99752 -158.02439 37622 ft 474 kts 279°
2026-05-05 15:24 -62.98106 -158.16454 37605 ft 472 kts 278°
2026-05-05 15:24 -62.96478 -158.30388 37607 ft 472 kts 277°
2026-05-05 15:25 -62.94836 -158.44373 37604 ft 472 kts 278°
2026-05-05 15:25 -62.93456 -158.55973 37611 ft 471 kts 278°
2026-05-05 15:26 -62.91794 -158.69879 37610 ft 470 kts 278°
2026-05-05 15:26 -62.90118 -158.83742 37604 ft 470 kts 278°
2026-05-05 15:27 -62.88436 -158.97535 37617 ft 470 kts 278°
2026-05-05 15:27 -62.86735 -159.11353 37616 ft 470 kts 278°
2026-05-05 15:28 -62.85018 -159.25180 37614 ft 469 kts 278°
2026-05-05 15:28 -62.83305 -159.38849 37621 ft 468 kts 278°
2026-05-05 15:29 -62.81566 -159.52603 37620 ft 468 kts 278°
2026-05-05 15:29 -62.79817 -159.66321 37622 ft 468 kts 278°
2026-05-05 15:30 -62.78055 -159.80012 37618 ft 468 kts 278°
2026-05-05 15:30 -62.76278 -159.93696 37624 ft 467 kts 278°
2026-05-05 15:31 -62.74502 -160.07259 37635 ft 466 kts 278°
2026-05-05 15:31 -62.72704 -160.20881 37628 ft 466 kts 278°
2026-05-05 15:32 -62.70909 -160.34357 37627 ft 466 kts 279°
2026-05-05 15:32 -62.69089 -160.47912 37631 ft 466 kts 279°
2026-05-05 15:33 -62.67253 -160.61464 37637 ft 466 kts 279°
2026-05-05 15:33 -62.65410 -160.74962 37640 ft 465 kts 279°
2026-05-05 15:34 -62.63552 -160.88454 37646 ft 465 kts 279°
2026-05-05 15:34 -62.61697 -161.01816 37648 ft 464 kts 279°
2026-05-05 15:35 -62.59822 -161.15214 37652 ft 464 kts 279°
2026-05-05 15:35 -62.57927 -161.28647 37661 ft 463 kts 279°
2026-05-05 15:36 -62.56036 -161.41938 37662 ft 463 kts 279°
2026-05-05 15:36 -62.54121 -161.55297 37668 ft 462 kts 279°
2026-05-05 15:37 -62.52198 -161.68603 37671 ft 462 kts 279°
2026-05-05 15:37 -62.50277 -161.81795 37680 ft 461 kts 279°
2026-05-05 15:38 -62.48332 -161.95050 37682 ft 461 kts 279°
2026-05-05 15:38 -62.46387 -162.08195 37699 ft 461 kts 280°
2026-05-05 15:39 -62.44418 -162.21413 37695 ft 461 kts 280°
2026-05-05 15:39 -62.42445 -162.34542 37693 ft 460 kts 280°
2026-05-05 15:40 -62.40453 -162.47711 37701 ft 460 kts 280°
2026-05-05 15:40 -62.38461 -162.60776 37711 ft 459 kts 280°
2026-05-05 15:41 -62.36452 -162.73856 37711 ft 459 kts 280°
2026-05-05 15:41 -62.34427 -162.86937 37723 ft 459 kts 280°
2026-05-05 15:42 -62.32407 -162.99901 37722 ft 459 kts 280°
2026-05-05 15:42 -62.30358 -163.12946 37726 ft 459 kts 280°
2026-05-05 15:43 -62.28314 -163.25868 37729 ft 459 kts 281°
2026-05-05 15:43 -62.26243 -163.38866 37735 ft 459 kts 281°
2026-05-05 15:44 -62.24169 -163.51785 37744 ft 459 kts 281°
2026-05-05 15:44 -62.22087 -163.64667 37740 ft 458 kts 281°
2026-05-05 15:45 -62.19986 -163.77572 37748 ft 457 kts 281°
2026-05-05 15:45 -62.17875 -163.90457 37753 ft 457 kts 281°
2026-05-05 15:46 -62.15767 -164.03219 37756 ft 457 kts 281°
2026-05-05 15:46 -62.13638 -164.16028 37760 ft 457 kts 281°
2026-05-05 15:47 -62.11493 -164.28841 37764 ft 457 kts 281°
2026-05-05 15:47 -62.09350 -164.41554 37773 ft 457 kts 281°
2026-05-05 15:48 -62.07180 -164.54335 37767 ft 456 kts 281°
2026-05-05 15:48 -62.05021 -164.66972 37776 ft 456 kts 281°
2026-05-05 15:49 -62.02832 -164.79695 37783 ft 456 kts 282°
2026-05-05 15:49 -62.00636 -164.92368 37783 ft 455 kts 282°
2026-05-05 15:50 -61.98445 -165.04936 37790 ft 455 kts 282°
2026-05-05 15:50 -61.96229 -165.17556 37794 ft 454 kts 282°
2026-05-05 15:51 -61.94007 -165.30133 37800 ft 453 kts 282°
2026-05-05 15:51 -61.91792 -165.42584 37808 ft 453 kts 282°
2026-05-05 15:52 -61.89548 -165.55119 37808 ft 453 kts 282°
2026-05-05 15:52 -61.87315 -165.67505 37810 ft 452 kts 282°
2026-05-05 15:53 -61.85059 -165.79948 37813 ft 452 kts 282°
2026-05-05 15:53 -61.82791 -165.92373 37820 ft 451 kts 282°
2026-05-05 15:54 -61.80511 -166.04778 37825 ft 451 kts 283°
2026-05-05 15:54 -61.78240 -166.17065 37828 ft 451 kts 283°
2026-05-05 15:55 -61.75947 -166.29385 37827 ft 450 kts 283°
2026-05-05 15:55 -61.73642 -166.41701 37844 ft 450 kts 283°
2026-05-05 15:56 -61.71343 -166.53901 37852 ft 449 kts 283°
2026-05-05 15:56 -61.69026 -166.66124 37841 ft 449 kts 283°
2026-05-05 15:57 -61.66693 -166.78353 37843 ft 448 kts 283°
2026-05-05 15:57 -61.64362 -166.90499 37850 ft 447 kts 283°
2026-05-05 15:58 -61.62020 -167.02623 37855 ft 447 kts 283°
2026-05-05 15:58 -61.59678 -167.14677 37862 ft 446 kts 283°
2026-05-05 15:59 -61.57323 -167.26721 37862 ft 445 kts 283°
2026-05-05 15:59 -61.54962 -167.38733 37865 ft 445 kts 283°
2026-05-05 16:00 -61.52601 -167.50669 37865 ft 445 kts 283°
2026-05-05 16:00 -61.50219 -167.62638 37875 ft 444 kts 283°
2026-05-05 16:01 -61.47838 -167.74530 37879 ft 444 kts 283°
2026-05-05 16:01 -61.45439 -167.86445 37877 ft 443 kts 283°
2026-05-05 16:02 -61.43053 -167.98228 37883 ft 442 kts 283°
2026-05-05 16:02 -61.40649 -168.10024 37887 ft 440 kts 283°
2026-05-05 16:03 -61.38237 -168.21803 37889 ft 440 kts 283°
2026-05-05 16:03 -61.35833 -168.33468 37887 ft 438 kts 283°
2026-05-05 16:04 -61.33423 -168.45095 37904 ft 437 kts 283°
2026-05-05 16:04 -61.31004 -168.56708 37915 ft 439 kts 284°
2026-05-05 16:05 -61.28569 -168.68316 37901 ft 439 kts 284°
2026-05-05 16:05 -61.26116 -168.79958 37912 ft 438 kts 284°
2026-05-05 16:06 -61.23671 -168.91494 37910 ft 438 kts 284°
2026-05-05 16:06 -61.21208 -169.03048 37913 ft 437 kts 284°
2026-05-05 16:07 -61.18753 -169.14502 37906 ft 436 kts 284°
2026-05-05 16:07 -61.16277 -169.25994 37905 ft 436 kts 284°
2026-05-05 16:08 -61.13807 -169.37394 37908 ft 436 kts 284°
2026-05-05 16:08 -61.11319 -169.48812 37921 ft 435 kts 284°
2026-05-05 16:09 -61.08815 -169.60247 37911 ft 434 kts 284°
2026-05-05 16:09 -61.06328 -169.71536 37919 ft 434 kts 284°
2026-05-05 16:10 -61.03819 -169.82869 37909 ft 433 kts 284°
2026-05-05 16:10 -61.01305 -169.94164 37918 ft 433 kts 285°
2026-05-05 16:11 -60.98545 -170.05291 37926 ft 438 kts 289°
2026-05-05 16:12 -60.92564 -170.27098 37912 ft 438 kts 289°
2026-05-05 16:13 -60.85505 -170.52533 37910 ft 439 kts 289°
2026-05-05 16:13 -60.82482 -170.63347 37922 ft 439 kts 289°
2026-05-05 16:14 -60.76382 -170.84996 37926 ft 440 kts 289°
2026-05-05 16:15 -60.70240 -171.06584 37924 ft 441 kts 290°
2026-05-05 16:16 -60.64037 -171.28185 37923 ft 442 kts 290°
2026-05-05 16:17 -60.59200 -171.44190 38184 ft 441 kts 293°
2026-05-05 16:18 -60.56237 -171.54966 37925 ft 437 kts 288°
2026-05-05 16:18 -60.54767 -171.60417 37932 ft 439 kts 291°
2026-05-05 16:19 -60.49965 -171.76367 37936 ft 442 kts 290°
2026-05-05 16:19 -60.45214 -171.92481 37927 ft 444 kts 291°
2026-05-05 16:20 -60.38850 -172.13851 37925 ft 444 kts 291°
2026-05-05 16:22 -60.30843 -172.40431 37922 ft 444 kts 291°
2026-05-05 16:23 -60.24390 -172.61636 37916 ft 444 kts 292°
2026-05-05 16:23 -60.19525 -172.77491 37913 ft 445 kts 292°
2026-05-05 16:24 -60.16257 -172.88077 37909 ft 444 kts 292°
2026-05-05 16:25 -60.11364 -173.03845 37904 ft 445 kts 292°
2026-05-05 16:25 -60.06429 -173.19640 37903 ft 445 kts 292°
2026-05-05 16:26 -59.99847 -173.40523 37700 ft 434 kts 292°
2026-05-05 16:27 -59.98247 -173.45554 37821 ft 426 kts 292°
2026-05-05 16:27 -59.96663 -173.50573 37902 ft 426 kts 292°
2026-05-05 16:27 -59.93459 -173.60656 37891 ft 432 kts 293°
2026-05-05 16:28 -59.90214 -173.70780 37895 ft 433 kts 293°
2026-05-05 16:28 -59.86990 -173.80831 37889 ft 433 kts 293°
2026-05-05 16:29 -59.83732 -173.90921 37897 ft 432 kts 294°
2026-05-05 16:29 -59.80493 -174.00923 37898 ft 431 kts 294°
2026-05-05 16:30 -59.77241 -174.10914 37884 ft 430 kts 294°
2026-05-05 16:30 -59.73985 -174.20880 37879 ft 429 kts 294°
2026-05-05 16:31 -59.70729 -174.30803 37879 ft 429 kts 294°
2026-05-05 16:31 -59.67488 -174.40637 37879 ft 428 kts 294°
2026-05-05 16:32 -59.64226 -174.50494 37868 ft 428 kts 295°
2026-05-05 16:32 -59.60957 -174.60331 37870 ft 427 kts 295°
2026-05-05 16:33 -59.57683 -174.70141 37866 ft 427 kts 295°
2026-05-05 16:33 -59.54430 -174.79847 37865 ft 426 kts 295°
2026-05-05 16:34 -59.51154 -174.89584 37858 ft 425 kts 295°
2026-05-05 16:34 -59.47881 -174.99268 37853 ft 425 kts 295°
2026-05-05 16:35 -59.44598 -175.08944 37853 ft 424 kts 296°
2026-05-05 16:35 -59.41328 -175.18542 37848 ft 424 kts 296°
2026-05-05 16:36 -59.38033 -175.28175 37856 ft 425 kts 296°
2026-05-05 16:36 -59.34745 -175.37744 37837 ft 424 kts 296°
2026-05-05 16:37 -59.31439 -175.47332 37832 ft 424 kts 296°
2026-05-05 16:37 -59.28126 -175.56897 37831 ft 423 kts 296°
2026-05-05 16:38 -59.24830 -175.66376 37821 ft 423 kts 296°
2026-05-05 16:38 -59.21501 -175.75914 37823 ft 424 kts 297°
2026-05-05 16:39 -59.18192 -175.85353 37817 ft 423 kts 297°
2026-05-05 16:39 -59.14854 -175.94838 37811 ft 423 kts 297°
2026-05-05 16:40 -59.11518 -176.04278 37809 ft 422 kts 297°
2026-05-05 16:40 -59.08198 -176.13639 37801 ft 422 kts 297°
2026-05-05 16:41 -59.04854 -176.23026 37803 ft 422 kts 297°
2026-05-05 16:41 -59.01497 -176.32414 37790 ft 422 kts 298°
2026-05-05 16:42 -58.98156 -176.41721 37795 ft 422 kts 298°
2026-05-05 16:42 -58.94786 -176.51070 37783 ft 421 kts 298°
2026-05-05 16:43 -58.91442 -176.60312 37781 ft 421 kts 298°
2026-05-05 16:43 -58.88066 -176.69603 37773 ft 420 kts 298°
2026-05-05 16:44 -58.84698 -176.78839 37763 ft 420 kts 298°
2026-05-05 16:44 -58.81322 -176.88061 37758 ft 420 kts 298°
2026-05-05 16:45 -58.77962 -176.97203 37758 ft 420 kts 298°
2026-05-05 16:45 -58.74578 -177.06374 37754 ft 419 kts 298°
2026-05-05 16:46 -58.71219 -177.15444 37751 ft 420 kts 299°
2026-05-05 16:46 -58.67829 -177.24562 37749 ft 420 kts 299°
2026-05-05 16:47 -58.64415 -177.33708 37737 ft 421 kts 299°
2026-05-05 16:47 -58.61019 -177.42771 37732 ft 420 kts 299°
2026-05-05 16:48 -58.57589 -177.51894 37839 ft 421 kts 299°
2026-05-05 16:48 -58.55867 -177.56456 37988 ft 421 kts 300°
2026-05-05 16:48 -58.54166 -177.60958 38112 ft 421 kts 300°
2026-05-05 16:49 -58.52443 -177.65509 38241 ft 421 kts 300°
2026-05-05 16:49 -58.50718 -177.70055 38351 ft 421 kts 300°
2026-05-05 16:49 -58.47280 -177.79093 38502 ft 423 kts 300°
2026-05-05 16:50 -58.43803 -177.88197 38630 ft 424 kts 300°
2026-05-05 16:50 -58.40305 -177.97321 38746 ft 426 kts 300°
2026-05-05 16:51 -58.36799 -178.06430 38876 ft 427 kts 300°
2026-05-05 16:51 -58.33283 -178.15531 39002 ft 429 kts 301°
2026-05-05 16:52 -58.29734 -178.24682 39143 ft 430 kts 301°
2026-05-05 16:52 -58.26159 -178.33866 39279 ft 432 kts 301°
2026-05-05 16:53 -58.22594 -178.42986 39414 ft 433 kts 301°
2026-05-05 16:53 -58.18989 -178.52175 39561 ft 434 kts 301°
2026-05-05 16:54 -58.15388 -178.61319 39689 ft 436 kts 302°
2026-05-05 16:54 -58.11731 -178.70568 39679 ft 437 kts 302°
2026-05-05 16:55 -58.08107 -178.79697 39678 ft 435 kts 302°
2026-05-05 16:55 -58.04462 -178.88849 39669 ft 434 kts 302°
2026-05-05 16:56 -58.00836 -178.97919 39674 ft 433 kts 301°
2026-05-05 16:56 -57.97786 -179.07596 39685 ft 428 kts 295°
2026-05-05 16:57 -57.94909 -179.17384 39678 ft 428 kts 295°
2026-05-05 16:57 -57.92017 -179.27217 39677 ft 428 kts 295°
2026-05-05 16:58 -57.89144 -179.36926 39669 ft 427 kts 295°
2026-05-05 16:58 -57.86250 -179.46675 39665 ft 426 kts 295°
2026-05-05 16:59 -57.83841 -179.54759 39663 ft 427 kts 295°
2026-05-05 16:59 -57.80458 -179.66059 39658 ft 425 kts 296°
2026-05-05 17:00 -57.78042 -179.74100 39655 ft 425 kts 296°
2026-05-05 17:00 -57.75127 -179.83759 39659 ft 425 kts 296°
2026-05-05 17:01 -57.72219 -179.93360 39662 ft 425 kts 296°
2026-05-05 17:01 -57.69300 179.97048 39659 ft 422 kts 296°
2026-05-05 17:02 -57.66382 179.87490 39659 ft 422 kts 296°
2026-05-05 17:02 -57.63475 179.78014 39656 ft 422 kts 296°
2026-05-05 17:03 -57.60544 179.68492 39649 ft 422 kts 296°
2026-05-05 17:03 -57.57630 179.59068 39652 ft 422 kts 296°
2026-05-05 17:04 -57.54688 179.49590 39647 ft 422 kts 297°
2026-05-05 17:04 -57.51734 179.40112 39648 ft 423 kts 297°
2026-05-05 17:05 -57.48782 179.30678 39649 ft 423 kts 297°
2026-05-05 17:05 -57.45811 179.21221 39645 ft 424 kts 297°
2026-05-05 17:06 -57.42845 179.11819 39647 ft 424 kts 297°
2026-05-05 17:06 -57.39858 179.02386 39647 ft 424 kts 297°
2026-05-05 17:07 -57.36854 178.92941 39649 ft 425 kts 297°
2026-05-05 17:07 -57.33845 178.83513 39647 ft 425 kts 297°
2026-05-05 17:08 -57.30846 178.74157 39650 ft 424 kts 298°
2026-05-05 17:08 -57.27826 178.64769 39658 ft 424 kts 298°
2026-05-05 17:09 -57.24809 178.55432 39653 ft 425 kts 298°
2026-05-05 17:09 -57.21768 178.46055 39648 ft 425 kts 298°
2026-05-05 17:10 -57.18722 178.36700 39646 ft 424 kts 298°
2026-05-05 17:10 -57.15694 178.27434 39649 ft 424 kts 298°
2026-05-05 17:11 -57.12628 178.18090 39646 ft 426 kts 298°
2026-05-05 17:11 -57.09573 178.08817 39646 ft 425 kts 299°
2026-05-05 17:12 -57.06492 177.99501 39645 ft 425 kts 299°
2026-05-05 17:12 -57.03430 177.90279 39643 ft 425 kts 299°
2026-05-05 17:13 -57.00340 177.81008 39642 ft 425 kts 299°
2026-05-05 17:13 -56.97241 177.71747 39639 ft 424 kts 299°
2026-05-05 17:14 -56.94169 177.62599 39648 ft 423 kts 299°
2026-05-05 17:14 -56.91076 177.53426 39643 ft 421 kts 300°
2026-05-05 17:15 -56.87984 177.44289 39645 ft 421 kts 300°
2026-05-05 17:15 -56.84890 177.35184 39643 ft 421 kts 300°
2026-05-05 17:16 -56.81807 177.26144 39642 ft 422 kts 300°
2026-05-05 17:16 -56.78682 177.17013 39649 ft 424 kts 300°
2026-05-05 17:17 -56.75563 177.07937 39651 ft 424 kts 300°
2026-05-05 17:17 -56.72431 176.98858 39648 ft 424 kts 300°
2026-05-05 17:18 -56.69282 176.89764 39648 ft 424 kts 300°
2026-05-05 17:18 -56.66129 176.80690 39646 ft 424 kts 301°
2026-05-05 17:19 -56.62985 176.71676 39645 ft 424 kts 301°
2026-05-05 17:19 -56.59815 176.62624 39645 ft 424 kts 301°
2026-05-05 17:20 -56.56633 176.53571 39645 ft 424 kts 301°
2026-05-05 17:20 -56.53468 176.44600 39647 ft 424 kts 301°
2026-05-05 17:21 -56.50285 176.35609 39645 ft 424 kts 301°
2026-05-05 17:22 -56.45518 176.22210 39646 ft 423 kts 301°
2026-05-05 17:22 -56.42315 176.13245 39651 ft 424 kts 302°
2026-05-05 17:23 -56.39119 176.04337 39653 ft 424 kts 302°
2026-05-05 17:23 -56.35902 175.95401 39653 ft 425 kts 302°
2026-05-05 17:24 -56.32678 175.86481 39655 ft 424 kts 302°
2026-05-05 17:24 -56.29465 175.77619 39649 ft 424 kts 302°
2026-05-05 17:25 -56.26225 175.68721 39651 ft 425 kts 302°
2026-05-05 17:25 -56.22983 175.59845 39653 ft 425 kts 302°
2026-05-05 17:26 -56.19726 175.50962 39655 ft 426 kts 302°
2026-05-05 17:26 -56.16457 175.42081 39657 ft 426 kts 303°
2026-05-05 17:27 -56.13188 175.33230 39661 ft 425 kts 303°
2026-05-05 17:27 -56.09937 175.24462 39655 ft 424 kts 303°
2026-05-05 17:28 -56.06656 175.15641 39660 ft 425 kts 303°
2026-05-05 17:28 -56.03377 175.06859 39650 ft 423 kts 303°
2026-05-05 17:29 -56.00117 174.98161 39655 ft 424 kts 303°
2026-05-05 17:29 -55.96811 174.89369 39659 ft 425 kts 303°
2026-05-05 17:30 -55.93502 174.80601 39660 ft 425 kts 303°
2026-05-05 17:30 -55.90211 174.71914 39659 ft 425 kts 303°
2026-05-05 17:31 -55.86887 174.63169 39660 ft 425 kts 304°
2026-05-05 17:31 -55.83566 174.54464 39659 ft 425 kts 304°
2026-05-05 17:32 -55.80255 174.45816 39659 ft 425 kts 304°
2026-05-05 17:32 -55.76914 174.37121 39667 ft 426 kts 304°
2026-05-05 17:33 -55.73565 174.28434 39667 ft 426 kts 304°
2026-05-05 17:33 -55.70226 174.19805 39672 ft 427 kts 304°
2026-05-05 17:34 -55.66847 174.11104 39672 ft 427 kts 304°
2026-05-05 17:34 -55.63489 174.02486 39672 ft 427 kts 304°
2026-05-05 17:35 -55.60104 173.93832 39675 ft 427 kts 304°
2026-05-05 17:35 -55.56734 173.85244 39675 ft 426 kts 305°
2026-05-05 17:36 -55.53339 173.76623 39676 ft 426 kts 305°
2026-05-05 17:36 -55.49938 173.68017 39679 ft 426 kts 305°
2026-05-05 17:37 -55.46561 173.59501 39677 ft 426 kts 305°
2026-05-05 17:37 -55.43161 173.50958 39675 ft 425 kts 305°
2026-05-05 17:38 -55.39777 173.42483 39672 ft 424 kts 305°
2026-05-05 17:38 -55.36365 173.33968 39674 ft 425 kts 305°
2026-05-05 17:39 -55.32970 173.25525 39676 ft 426 kts 306°
2026-05-05 17:39 -55.29536 173.17015 39677 ft 426 kts 306°
2026-05-05 17:40 -55.26111 173.08555 39680 ft 427 kts 306°
2026-05-05 17:40 -55.22652 173.00042 39680 ft 428 kts 306°
2026-05-05 17:41 -55.19183 172.91531 39681 ft 428 kts 306°
2026-05-05 17:41 -55.15740 172.83115 39687 ft 428 kts 306°
2026-05-05 17:42 -55.12269 172.74659 39686 ft 426 kts 306°
2026-05-05 17:42 -55.08818 172.66279 39686 ft 426 kts 306°
2026-05-05 17:43 -55.05359 172.57910 39689 ft 426 kts 306°
2026-05-05 17:43 -55.01875 172.49509 39687 ft 427 kts 306°
2026-05-05 17:44 -54.97897 172.41848 39704 ft 428 kts 318°
2026-05-05 17:44 -54.93390 172.35093 39699 ft 429 kts 318°
2026-05-05 17:45 -54.88850 172.28318 39700 ft 430 kts 318°
2026-05-05 17:45 -54.84323 172.21581 39703 ft 430 kts 318°
2026-05-05 17:46 -54.79780 172.14839 39701 ft 430 kts 318°
2026-05-05 17:46 -54.75229 172.08110 39702 ft 430 kts 318°
2026-05-05 17:47 -54.70702 172.01434 39702 ft 429 kts 318°
2026-05-05 17:47 -54.66144 171.94733 39700 ft 429 kts 318°
2026-05-05 17:48 -54.62355 171.89177 39703 ft 429 kts 318°
2026-05-05 17:48 -54.57044 171.81415 39705 ft 430 kts 319°
2026-05-05 17:49 -54.53237 171.75869 39706 ft 430 kts 319°
2026-05-05 17:49 -54.48652 171.69206 39706 ft 430 kts 319°
2026-05-05 17:50 -54.44099 171.62610 39707 ft 431 kts 319°
2026-05-05 17:50 -54.39496 171.55962 39708 ft 431 kts 319°
2026-05-05 17:51 -54.34917 171.49368 39709 ft 432 kts 319°
2026-05-05 17:51 -54.30290 171.42726 39712 ft 432 kts 319°
2026-05-05 17:52 -54.25694 171.36149 39709 ft 431 kts 319°
2026-05-05 17:52 -54.21080 171.29565 39714 ft 432 kts 319°
2026-05-05 17:53 -54.16476 171.23014 39716 ft 432 kts 319°
2026-05-05 17:53 -54.11844 171.16444 39723 ft 433 kts 319°
2026-05-05 17:54 -54.07205 171.09885 39722 ft 432 kts 319°
2026-05-05 17:54 -54.02587 171.03373 39725 ft 433 kts 319°
2026-05-05 17:55 -53.97933 170.96832 39728 ft 433 kts 319°
2026-05-05 17:55 -53.95634 170.93605 39141 ft 436 kts 320°
2026-05-05 17:55 -53.93283 170.90316 39212 ft 440 kts 320°
2026-05-05 17:56 -53.88514 170.83650 39409 ft 446 kts 320°
2026-05-05 17:56 -53.86114 170.80305 39520 ft 448 kts 320°
2026-05-05 17:56 -53.83694 170.76937 39640 ft 451 kts 320°
2026-05-05 17:56 -53.81262 170.73557 39761 ft 453 kts 320°
2026-05-05 17:57 -53.78821 170.70171 39882 ft 455 kts 321°
2026-05-05 17:57 -53.76398 170.66813 39992 ft 457 kts 321°
2026-05-05 17:57 -53.73925 170.63392 39990 ft 462 kts 321°
2026-05-05 17:58 -53.68923 170.56488 39998 ft 464 kts 319°
2026-05-05 17:58 -53.63851 170.49510 39936 ft 475 kts 315°
2026-05-05 17:59 -53.58711 170.42459 39990 ft 483 kts 315°
2026-05-05 17:59 -53.53448 170.35268 40020 ft 491 kts 317°
2026-05-05 18:00 -53.48098 170.27981 40017 ft 502 kts 317°
2026-05-05 18:00 -53.42605 170.20524 40016 ft 513 kts 317°
2026-05-05 18:01 -53.36985 170.12921 40015 ft 523 kts 318°
2026-05-05 18:01 -53.31288 170.05241 40014 ft 532 kts 318°
2026-05-05 18:02 -53.25451 169.97401 40013 ft 541 kts 318°
2026-05-05 18:02 -53.19558 169.89514 40015 ft 549 kts 318°
2026-05-05 18:03 -53.13534 169.81480 40015 ft 557 kts 318°
2026-05-05 18:03 -53.07464 169.73416 40007 ft 564 kts 318°
2026-05-05 18:04 -53.01285 169.65238 40016 ft 570 kts 319°
2026-05-05 18:04 -52.95104 169.57090 40012 ft 557 kts 320°
2026-05-05 18:05 -52.89062 169.49152 40010 ft 552 kts 319°
2026-05-05 18:05 -52.83051 169.41280 40008 ft 555 kts 320°
2026-05-05 18:06 -52.76971 169.33354 40009 ft 557 kts 320°
2026-05-05 18:06 -52.70880 169.25437 40010 ft 557 kts 320°
2026-05-05 18:07 -52.64806 169.17575 40011 ft 557 kts 320°
2026-05-05 18:07 -52.58706 169.09704 40011 ft 556 kts 320°
2026-05-05 18:08 -52.52636 169.01904 40009 ft 555 kts 320°
2026-05-05 18:08 -52.46530 168.94084 40008 ft 555 kts 320°
2026-05-05 18:09 -52.40472 168.86352 40006 ft 554 kts 320°
2026-05-05 18:09 -52.34356 168.78578 40006 ft 554 kts 320°
2026-05-05 18:10 -52.28294 168.70896 40005 ft 554 kts 320°
2026-05-05 18:10 -52.22179 168.63177 40004 ft 554 kts 320°
2026-05-05 18:11 -52.16073 168.55496 40004 ft 554 kts 320°
2026-05-05 18:11 -52.09987 168.47870 39991 ft 557 kts 319°
2026-05-05 18:12 -52.03780 168.40112 39992 ft 564 kts 319°
2026-05-05 18:12 -51.97531 168.32338 39998 ft 571 kts 320°
2026-05-05 18:13 -51.91185 168.24467 40008 ft 577 kts 320°
2026-05-05 18:13 -51.84814 168.16596 40010 ft 581 kts 320°
2026-05-05 18:14 -51.78367 168.08662 40007 ft 580 kts 320°
2026-05-05 18:14 -51.71976 168.00823 40010 ft 579 kts 320°
2026-05-05 18:15 -51.65558 167.92981 40007 ft 577 kts 320°
2026-05-05 18:15 -51.59173 167.85207 40006 ft 578 kts 320°
2026-05-05 18:16 -51.52741 167.77404 40009 ft 579 kts 320°
2026-05-05 18:16 -51.46286 167.69601 40012 ft 580 kts 320°
2026-05-05 18:17 -51.39852 167.61852 40011 ft 580 kts 320°
2026-05-05 18:17 -51.33390 167.54098 40010 ft 580 kts 320°
2026-05-05 18:18 -51.26912 167.46353 40011 ft 580 kts 320°
2026-05-05 18:18 -51.20473 167.38682 40010 ft 580 kts 320°
2026-05-05 18:19 -51.14017 167.31017 40010 ft 579 kts 320°
2026-05-05 18:19 -51.07538 167.23353 40009 ft 579 kts 321°
2026-05-05 18:20 -51.01054 167.15710 40007 ft 578 kts 321°
2026-05-05 18:20 -50.94615 167.08148 40005 ft 578 kts 321°
2026-05-05 18:21 -50.88126 167.00554 40003 ft 577 kts 321°
2026-05-05 18:21 -50.81691 166.93048 40003 ft 578 kts 321°
2026-05-05 18:22 -50.75187 166.85490 40006 ft 580 kts 321°
2026-05-05 18:22 -50.68661 166.77932 40010 ft 580 kts 321°
2026-05-05 18:23 -50.62161 166.70432 40010 ft 581 kts 321°
2026-05-05 18:23 -50.55654 166.62949 40009 ft 580 kts 321°
2026-05-05 18:24 -50.49111 166.55452 40010 ft 580 kts 321°
2026-05-05 18:24 -50.42617 166.48036 40008 ft 579 kts 321°
2026-05-05 18:25 -50.36099 166.40619 40006 ft 579 kts 321°
2026-05-05 18:25 -50.29565 166.33209 40005 ft 579 kts 321°
2026-05-05 18:26 -50.23038 166.25833 40004 ft 578 kts 321°
2026-05-05 18:26 -50.16509 166.18480 40002 ft 577 kts 321°
2026-05-05 18:27 -50.10027 166.11204 40002 ft 578 kts 321°
2026-05-05 18:27 -50.03475 166.03876 40004 ft 579 kts 322°
2026-05-05 18:28 -49.94186 165.91933 40009 ft 576 kts 314°
2026-05-05 18:28 -49.88222 165.83671 40010 ft 577 kts 315°
2026-05-05 18:29 -49.82236 165.75429 40011 ft 577 kts 315°
2026-05-05 18:29 -49.76229 165.67165 40010 ft 577 kts 315°
2026-05-05 18:30 -49.70200 165.58917 40011 ft 577 kts 315°
2026-05-05 18:30 -49.64214 165.50744 40011 ft 577 kts 315°
2026-05-05 18:31 -49.58178 165.42540 40011 ft 577 kts 315°
2026-05-05 18:31 -49.52142 165.34358 40011 ft 577 kts 315°
2026-05-05 18:32 -49.46132 165.26242 40010 ft 577 kts 315°
2026-05-05 18:32 -49.40082 165.18096 40009 ft 576 kts 315°
2026-05-05 18:33 -49.34051 165.10007 40008 ft 576 kts 315°
2026-05-05 18:33 -49.28044 165.01976 40006 ft 575 kts 315°
2026-05-05 18:34 -49.21987 164.93906 40003 ft 574 kts 315°
2026-05-05 18:34 -49.15980 164.85929 40002 ft 575 kts 315°
2026-05-05 18:35 -49.09915 164.77901 40004 ft 576 kts 316°
2026-05-05 18:35 -49.03870 164.69927 40008 ft 577 kts 316°
2026-05-05 18:36 -48.97783 164.61925 40010 ft 578 kts 316°
2026-05-05 18:36 -48.91717 164.53977 40010 ft 578 kts 316°
2026-05-05 18:37 -48.86631 164.47334 40011 ft 578 kts 316°
2026-05-05 18:37 -48.80520 164.39375 40010 ft 578 kts 316°
2026-05-05 18:38 -48.74418 164.31454 40009 ft 578 kts 316°
2026-05-05 18:38 -48.68301 164.23542 40009 ft 577 kts 316°
2026-05-05 18:39 -48.62201 164.15677 40007 ft 577 kts 316°
2026-05-05 18:39 -48.56081 164.07812 40005 ft 576 kts 316°
2026-05-05 18:40 -48.49963 163.99975 40003 ft 576 kts 316°
2026-05-05 18:40 -48.43875 163.92202 40002 ft 575 kts 316°
2026-05-05 18:41 -48.37778 163.84442 40003 ft 577 kts 316°
2026-05-05 18:41 -48.31630 163.76645 40005 ft 577 kts 316°
2026-05-05 18:42 -48.25466 163.68851 40008 ft 578 kts 316°
2026-05-05 18:42 -48.19323 163.61110 40010 ft 578 kts 317°
2026-05-05 18:43 -48.13150 163.53357 40012 ft 579 kts 317°
2026-05-05 18:43 -48.06975 163.45625 40011 ft 579 kts 317°
2026-05-05 18:44 -48.00823 163.37947 40011 ft 578 kts 317°
2026-05-05 18:44 -47.94620 163.30231 40010 ft 578 kts 317°
2026-05-05 18:45 -47.88438 163.22565 40009 ft 577 kts 317°
2026-05-05 18:45 -47.82290 163.14967 40007 ft 577 kts 317°
2026-05-05 18:46 -47.76097 163.07337 40005 ft 576 kts 317°
2026-05-05 18:46 -47.69958 162.99796 40003 ft 576 kts 317°
2026-05-05 18:47 -47.63759 162.92207 40005 ft 577 kts 317°
2026-05-05 18:47 -47.57557 162.84638 40006 ft 578 kts 317°
2026-05-05 18:48 -47.51328 162.77061 40009 ft 578 kts 317°
2026-05-05 18:48 -47.45137 162.69554 40011 ft 579 kts 317°
2026-05-05 18:49 -47.38894 162.62007 40011 ft 579 kts 317°
2026-05-05 18:49 -47.32675 162.54513 40010 ft 579 kts 317°
2026-05-05 18:50 -47.26411 162.46988 40011 ft 579 kts 317°
2026-05-05 18:50 -47.20188 162.39536 40012 ft 579 kts 317°
2026-05-05 18:51 -47.13955 162.32096 40011 ft 579 kts 318°
2026-05-05 18:51 -47.07687 162.24637 40011 ft 579 kts 318°
2026-05-05 18:52 -47.01420 162.17202 40011 ft 578 kts 318°
2026-05-05 18:52 -46.95183 162.09826 40008 ft 578 kts 318°
2026-05-05 18:53 -46.88915 162.02436 40007 ft 577 kts 318°
2026-05-05 18:53 -46.82688 161.95117 40005 ft 576 kts 318°
2026-05-05 18:54 -46.76426 161.87779 40004 ft 577 kts 318°
2026-05-05 18:54 -46.70175 161.80477 40007 ft 579 kts 318°
2026-05-05 18:55 -46.63870 161.73135 40011 ft 579 kts 318°
2026-05-05 18:55 -46.57561 161.65810 40010 ft 579 kts 318°
2026-05-05 18:56 -46.51287 161.58548 40011 ft 579 kts 318°
2026-05-05 18:56 -46.44975 161.51264 40011 ft 579 kts 319°
2026-05-05 18:57 -46.38649 161.43987 40010 ft 579 kts 319°
2026-05-05 18:57 -46.32334 161.36744 40009 ft 578 kts 319°
2026-05-05 18:58 -46.26050 161.29560 40007 ft 577 kts 319°
2026-05-05 18:58 -46.19737 161.22362 40004 ft 577 kts 319°
2026-05-05 18:59 -46.13457 161.15225 40002 ft 576 kts 319°
2026-05-05 18:59 -46.07163 161.08092 40004 ft 577 kts 319°
2026-05-05 19:00 -46.00826 161.00931 40005 ft 578 kts 319°
2026-05-05 19:00 -45.94710 160.93429 40006 ft 577 kts 316°
2026-05-05 19:01 -45.88618 160.85978 40010 ft 578 kts 316°
2026-05-05 19:01 -45.82515 160.78438 40010 ft 578 kts 316°
2026-05-05 19:02 -45.76402 160.70977 40011 ft 578 kts 316°
2026-05-05 19:02 -45.70303 160.63510 40010 ft 578 kts 316°
2026-05-05 19:03 -45.64168 160.56049 40010 ft 578 kts 316°
2026-05-05 19:03 -45.58034 160.48596 40010 ft 578 kts 316°
2026-05-05 19:04 -45.51934 160.41215 40008 ft 577 kts 316°
2026-05-05 19:04 -45.45809 160.33820 40006 ft 577 kts 316°
2026-05-05 19:05 -45.39676 160.26440 40004 ft 576 kts 316°
2026-05-05 19:05 -45.33542 160.19080 40002 ft 575 kts 316°
2026-05-05 19:06 -45.27458 160.11801 40001 ft 575 kts 316°
2026-05-05 19:06 -45.21322 160.04481 40001 ft 575 kts 316°
2026-05-05 19:07 -45.15174 159.97168 40001 ft 576 kts 317°
2026-05-05 19:07 -45.09042 159.89896 40001 ft 576 kts 317°
2026-05-05 19:08 -45.02916 159.82652 40002 ft 576 kts 317°
2026-05-05 19:08 -44.96794 159.75433 40002 ft 576 kts 317°
2026-05-05 19:09 -44.90641 159.68199 40002 ft 576 kts 317°
2026-05-05 19:09 -44.84464 159.60956 40002 ft 575 kts 317°
2026-05-05 19:10 -44.78277 159.53723 40004 ft 577 kts 317°
2026-05-05 19:10 -44.72116 159.46543 40009 ft 579 kts 317°
2026-05-05 19:11 -44.65886 159.39302 40010 ft 580 kts 317°
2026-05-05 19:11 -44.59709 159.32143 40009 ft 578 kts 317°
2026-05-05 19:12 -44.53504 159.24972 40004 ft 576 kts 317°
2026-05-05 19:12 -44.47302 159.17825 40003 ft 577 kts 317°
2026-05-05 19:13 -44.41120 159.10720 40005 ft 578 kts 317°
2026-05-05 19:13 -44.34871 159.03560 40010 ft 579 kts 317°
2026-05-05 19:14 -44.28671 158.96477 40011 ft 579 kts 317°
2026-05-05 19:14 -44.22421 158.89355 40010 ft 578 kts 317°
2026-05-05 19:15 -44.16174 158.82259 40009 ft 578 kts 317°
2026-05-05 19:15 -44.09965 158.75223 40008 ft 577 kts 317°
2026-05-05 19:16 -44.03717 158.68165 40006 ft 577 kts 318°
2026-05-05 19:16 -43.97518 158.61181 40003 ft 576 kts 318°
2026-05-05 19:17 -43.91268 158.54158 40003 ft 577 kts 318°
2026-05-05 19:17 -43.85012 158.47150 40006 ft 578 kts 318°
2026-05-05 19:18 -43.78779 158.40186 40009 ft 579 kts 318°
2026-05-05 19:18 -43.72496 158.33185 40012 ft 579 kts 318°
2026-05-05 19:19 -43.66198 158.26188 40011 ft 579 kts 318°
2026-05-05 19:19 -43.59931 158.19243 40011 ft 579 kts 318°
2026-05-05 19:20 -43.53649 158.12301 40011 ft 579 kts 318°
2026-05-05 19:20 -43.47385 158.05399 40009 ft 579 kts 318°
2026-05-05 19:21 -43.41077 157.98467 40009 ft 578 kts 318°
2026-05-05 19:21 -43.34778 157.91565 40008 ft 578 kts 318°
2026-05-05 19:22 -43.28521 157.84726 40007 ft 577 kts 318°
2026-05-05 19:22 -43.22255 157.77896 40005 ft 577 kts 319°
2026-05-05 19:23 -43.15959 157.71051 40003 ft 576 kts 319°
2026-05-05 19:23 -43.09672 157.64235 40003 ft 577 kts 319°
2026-05-05 19:24 -43.03353 157.57404 40006 ft 578 kts 319°
2026-05-05 19:24 -42.97057 157.50615 40007 ft 579 kts 319°
2026-05-05 19:25 -42.90749 157.43831 40011 ft 579 kts 319°
2026-05-05 19:25 -42.84400 157.37023 40010 ft 580 kts 319°
2026-05-05 19:26 -42.79111 157.31365 40010 ft 579 kts 319°
2026-05-05 19:26 -42.72749 157.24575 40010 ft 579 kts 319°
2026-05-05 19:27 -42.66432 157.17852 40010 ft 579 kts 319°
2026-05-05 19:27 -42.60077 157.11106 40010 ft 579 kts 319°
2026-05-05 19:28 -42.53735 157.04391 40008 ft 578 kts 319°
2026-05-05 19:28 -42.47420 156.97723 40007 ft 578 kts 319°
2026-05-05 19:29 -42.41065 156.91030 40006 ft 577 kts 319°
2026-05-05 19:29 -42.34730 156.84376 40004 ft 577 kts 319°
2026-05-05 19:30 -42.28365 156.77708 40003 ft 576 kts 319°
2026-05-05 19:30 -42.22062 156.71122 40002 ft 577 kts 319°
2026-05-05 19:31 -42.15677 156.64486 40007 ft 579 kts 322°
2026-05-05 19:31 -42.09055 156.58242 40008 ft 580 kts 322°
2026-05-05 19:32 -42.02483 156.52018 40011 ft 581 kts 323°
2026-05-05 19:32 -41.95833 156.45791 40011 ft 581 kts 322°
2026-05-05 19:33 -41.89218 156.39569 40009 ft 581 kts 322°
2026-05-05 19:33 -41.82606 156.33399 40010 ft 581 kts 322°
2026-05-05 19:34 -41.75952 156.27182 40011 ft 581 kts 322°
2026-05-05 19:35 -41.66011 156.17943 40011 ft 581 kts 322°
2026-05-05 19:35 -41.59351 156.11768 40010 ft 581 kts 323°
2026-05-05 19:36 -41.52737 156.05654 40010 ft 580 kts 323°
2026-05-05 19:36 -41.46088 155.99522 40009 ft 580 kts 323°
2026-05-05 19:37 -41.39437 155.93405 40007 ft 579 kts 323°
2026-05-05 19:37 -41.32834 155.87345 40005 ft 579 kts 323°
2026-05-05 19:38 -41.26185 155.81260 40004 ft 578 kts 323°
2026-05-05 19:38 -41.19584 155.75233 40005 ft 580 kts 323°
2026-05-05 19:39 -41.12924 155.69168 40008 ft 581 kts 323°
2026-05-05 19:39 -41.06243 155.63099 40011 ft 581 kts 323°
2026-05-05 19:40 -40.99589 155.57070 40010 ft 582 kts 323°
2026-05-05 19:40 -40.92881 155.51007 40011 ft 581 kts 323°
2026-05-05 19:41 -40.86196 155.44979 40011 ft 581 kts 323°
2026-05-05 19:41 -40.79541 155.38994 40011 ft 581 kts 323°
2026-05-05 19:42 -40.72852 155.32994 40010 ft 580 kts 323°
2026-05-05 19:42 -40.66195 155.27036 40009 ft 580 kts 323°
2026-05-05 19:43 -40.59506 155.21064 40008 ft 580 kts 323°
2026-05-05 19:43 -40.52829 155.15118 40006 ft 579 kts 323°
2026-05-05 19:44 -40.46200 155.09228 40004 ft 579 kts 323°
2026-05-05 19:44 -40.39502 155.03293 40003 ft 578 kts 323°
2026-05-05 19:45 -40.32864 154.97424 40004 ft 580 kts 323°
2026-05-05 19:45 -40.26150 154.91503 40009 ft 581 kts 323°
2026-05-05 19:46 -40.19450 154.85609 40009 ft 583 kts 323°
2026-05-05 19:46 -40.12717 154.79700 40009 ft 581 kts 324°
2026-05-05 19:47 -40.06004 154.73822 40006 ft 579 kts 324°
2026-05-05 19:47 -39.99347 154.68008 40002 ft 579 kts 324°
2026-05-05 19:48 -39.92654 154.62176 40004 ft 580 kts 324°
2026-05-05 19:48 -39.85927 154.56328 40005 ft 581 kts 324°
2026-05-05 19:49 -39.79194 154.50490 40008 ft 581 kts 324°
2026-05-05 19:49 -39.72451 154.44656 40009 ft 582 kts 324°
2026-05-05 19:50 -39.65742 154.38866 40011 ft 582 kts 324°
2026-05-05 19:50 -39.58993 154.33055 40011 ft 582 kts 324°
2026-05-05 19:51 -39.52227 154.27244 40009 ft 582 kts 324°
2026-05-05 19:51 -39.45515 154.21492 40009 ft 581 kts 324°
2026-05-05 19:52 -39.38758 154.15716 40008 ft 581 kts 324°
2026-05-05 19:52 -39.31998 154.09951 40007 ft 581 kts 324°
2026-05-05 19:53 -39.25280 154.04234 40006 ft 580 kts 324°
2026-05-05 19:53 -39.18527 153.98501 40004 ft 580 kts 324°
2026-05-05 19:54 -39.11772 153.92780 40003 ft 579 kts 324°
2026-05-05 19:54 -39.05058 153.87107 40001 ft 579 kts 324°
2026-05-05 19:55 -38.98316 153.81424 40001 ft 579 kts 324°
2026-05-05 19:55 -38.91597 153.75773 40003 ft 580 kts 324°
2026-05-05 19:56 -38.84815 153.70082 40005 ft 581 kts 324°
2026-05-05 19:56 -38.78040 153.64409 40006 ft 581 kts 324°
2026-05-05 19:57 -38.71290 153.58772 40008 ft 582 kts 324°
2026-05-05 19:57 -38.64501 153.53114 40010 ft 582 kts 324°
2026-05-05 19:58 -38.57702 153.47461 40012 ft 582 kts 324°
2026-05-05 19:58 -38.50900 153.41819 40011 ft 582 kts 324°
2026-05-05 19:59 -38.44124 153.36211 40011 ft 582 kts 324°
2026-05-05 19:59 -38.37319 153.30591 40011 ft 582 kts 325°
2026-05-05 20:00 -38.30564 153.25026 40011 ft 581 kts 325°
2026-05-05 20:00 -38.23748 153.19423 40010 ft 581 kts 325°
2026-05-05 20:01 -38.16945 153.13844 40009 ft 581 kts 325°
2026-05-05 20:01 -38.10200 153.08325 40007 ft 580 kts 325°
2026-05-05 20:02 -38.03412 153.02782 40006 ft 580 kts 325°
2026-05-05 20:02 -37.96212 152.98145 40016 ft 582 kts 338°
2026-05-05 20:03 -37.88645 152.94495 40007 ft 585 kts 339°
2026-05-05 20:03 -37.81019 152.90794 40008 ft 585 kts 338°
2026-05-05 20:04 -37.73453 152.87143 40009 ft 585 kts 339°
2026-05-05 20:04 -37.65823 152.83465 40011 ft 585 kts 339°
2026-05-05 20:04 -37.62075 152.81658 40020 ft 573 kts 339°
2026-05-05 20:05 -37.58415 152.79901 40002 ft 554 kts 339°
2026-05-05 20:05 -37.54855 152.78195 39998 ft 541 kts 339°
2026-05-05 20:05 -37.51476 152.76581 40229 ft 493 kts 336°
2026-05-05 20:05 -37.48319 152.75069 40147 ft 477 kts 336°
2026-05-05 20:06 -37.45253 152.73591 40136 ft 469 kts 336°
2026-05-05 20:06 -37.39100 152.70647 40142 ft 475 kts 336°
2026-05-05 20:07 -37.32903 152.67691 40153 ft 481 kts 336°
2026-05-05 20:07 -37.26642 152.64707 40157 ft 481 kts 336°
2026-05-05 20:08 -37.20391 152.61735 40155 ft 480 kts 336°
2026-05-05 20:08 -37.14125 152.58759 40155 ft 480 kts 336°
2026-05-05 20:09 -37.07904 152.55812 40154 ft 479 kts 336°
2026-05-05 20:09 -37.01665 152.52860 40149 ft 478 kts 336°
2026-05-05 20:10 -36.95425 152.49913 40148 ft 479 kts 336°
2026-05-05 20:10 -36.89207 152.46981 40149 ft 480 kts 336°
2026-05-05 20:11 -36.82923 152.44024 40154 ft 481 kts 336°
2026-05-05 20:11 -36.76695 152.41098 40155 ft 480 kts 336°
2026-05-05 20:12 -36.70419 152.38154 40157 ft 480 kts 336°
2026-05-05 20:12 -36.64178 152.35232 40155 ft 480 kts 336°
2026-05-05 20:13 -36.58960 152.32794 40155 ft 481 kts 336°
2026-05-05 20:13 -36.51670 152.29392 40157 ft 480 kts 336°
2026-05-05 20:14 -36.46452 152.26961 40158 ft 480 kts 336°
2026-05-05 20:14 -36.39171 152.23576 40160 ft 481 kts 336°
2026-05-05 20:15 -36.33922 152.21139 40156 ft 480 kts 336°
2026-05-05 20:15 -36.27691 152.18251 40160 ft 481 kts 336°
2026-05-05 20:16 -36.21414 152.15347 40158 ft 481 kts 336°
2026-05-05 20:16 -36.15175 152.12466 40160 ft 480 kts 336°
2026-05-05 20:17 -36.08918 152.09581 40163 ft 479 kts 336°
2026-05-05 20:17 -36.02647 152.06694 40163 ft 479 kts 336°
2026-05-05 20:18 -35.96436 152.03839 40165 ft 479 kts 336°
2026-05-05 20:18 -35.90166 152.00963 40167 ft 480 kts 336°
2026-05-05 20:19 -35.83894 151.98091 40166 ft 480 kts 336°
2026-05-05 20:19 -35.80817 151.96684 40052 ft 472 kts 336°
2026-05-05 20:19 -35.77751 151.95285 39490 ft 469 kts 336°
2026-05-05 20:19 -35.74691 151.93885 38812 ft 469 kts 336°
2026-05-05 20:20 -35.71621 151.92483 38064 ft 467 kts 336°
2026-05-05 20:20 -35.68618 151.91115 37357 ft 465 kts 336°
2026-05-05 20:20 -35.65585 151.89734 36616 ft 464 kts 336°
2026-05-05 20:20 -35.62557 151.88355 35872 ft 464 kts 337°
2026-05-05 20:21 -35.59502 151.86964 35088 ft 468 kts 337°
2026-05-05 20:21 -35.56461 151.85582 34277 ft 473 kts 337°
2026-05-05 20:21 -35.53358 151.84174 33391 ft 477 kts 337°
2026-05-05 20:21 -35.50242 151.82762 32486 ft 479 kts 337°
2026-05-05 20:22 -35.47102 151.81338 31552 ft 481 kts 337°
2026-05-05 20:22 -35.43945 151.79907 30571 ft 483 kts 337°
2026-05-05 20:22 -35.40782 151.78476 29508 ft 483 kts 337°
2026-05-05 20:22 -35.37642 151.77056 28435 ft 485 kts 338°
2026-05-05 20:23 -35.34449 151.75613 27298 ft 491 kts 338°
2026-05-05 20:23 -35.31218 151.74154 26086 ft 496 kts 338°
2026-05-05 20:23 -35.27967 151.72688 24867 ft 498 kts 338°
2026-05-05 20:23 -35.24731 151.71233 24060 ft 489 kts 338°
2026-05-05 20:24 -35.21612 151.69830 23322 ft 478 kts 338°
2026-05-05 20:24 -35.18509 151.68432 22511 ft 470 kts 338°
2026-05-05 20:24 -35.15444 151.67053 21749 ft 466 kts 338°
2026-05-05 20:24 -35.12404 151.65687 20993 ft 464 kts 338°
2026-05-05 20:25 -35.09412 151.64344 20266 ft 462 kts 338°
2026-05-05 20:25 -35.06404 151.62996 19549 ft 458 kts 339°
2026-05-05 20:25 -35.03422 151.61660 18891 ft 454 kts 339°
2026-05-05 20:25 -35.00467 151.60336 18210 ft 451 kts 339°
2026-05-05 20:26 -34.97527 151.59022 17479 ft 446 kts 339°
2026-05-05 20:26 -34.94630 151.57727 16752 ft 441 kts 339°
2026-05-05 20:26 -34.91753 151.56441 16043 ft 437 kts 339°
2026-05-05 20:26 -34.88915 151.55174 15358 ft 433 kts 339°
2026-05-05 20:27 -34.86134 151.53934 14805 ft 427 kts 339°
2026-05-05 20:27 -34.83350 151.52693 14335 ft 424 kts 339°
2026-05-05 20:27 -34.80578 151.51458 13845 ft 419 kts 339°
2026-05-05 20:27 -34.77912 151.50272 13319 ft 403 kts 339°
2026-05-05 20:28 -34.75324 151.49122 12785 ft 389 kts 339°
2026-05-05 20:28 -34.72825 151.48010 12414 ft 372 kts 339°
2026-05-05 20:28 -34.70498 151.46977 12134 ft 346 kts 339°
2026-05-05 20:28 -34.68335 151.46018 11827 ft 312 kts 339°
2026-05-05 20:29 -34.66319 151.45122 11531 ft 305 kts 339°
2026-05-05 20:29 -34.64357 151.44250 11129 ft 295 kts 339°
2026-05-05 20:29 -34.62473 151.43415 10783 ft 290 kts 339°
2026-05-05 20:29 -34.60566 151.42570 10413 ft 291 kts 339°
2026-05-05 20:30 -34.58668 151.41730 10040 ft 288 kts 339°
2026-05-05 20:30 -34.56792 151.40898 9631 ft 286 kts 339°
2026-05-05 20:30 -34.54930 151.40074 9230 ft 284 kts 339°
2026-05-05 20:30 -34.53099 151.39264 8843 ft 283 kts 340°
2026-05-05 20:31 -34.51256 151.38449 8457 ft 281 kts 340°
2026-05-05 20:31 -34.49421 151.37639 8088 ft 279 kts 340°
2026-05-05 20:31 -34.47597 151.36833 7771 ft 278 kts 341°
2026-05-05 20:31 -34.45777 151.36029 7442 ft 277 kts 341°
2026-05-05 20:32 -34.43956 151.35228 7128 ft 277 kts 341°
2026-05-05 20:32 -34.42147 151.34430 6813 ft 276 kts 341°
2026-05-05 20:32 -34.40341 151.33633 6491 ft 275 kts 341°
2026-05-05 20:32 -34.38570 151.32853 6170 ft 273 kts 342°
2026-05-05 20:33 -34.36790 151.32070 5943 ft 272 kts 342°
2026-05-05 20:33 -34.35010 151.31286 5657 ft 271 kts 341°
2026-05-05 20:33 -34.33238 151.30506 5381 ft 270 kts 341°
2026-05-05 20:33 -34.31491 151.29737 5101 ft 269 kts 342°
2026-05-05 20:34 -34.29731 151.28964 4839 ft 268 kts 342°
2026-05-05 20:34 -34.27984 151.28197 4558 ft 267 kts 342°
2026-05-05 20:34 -34.26236 151.27429 4273 ft 266 kts 342°
2026-05-05 20:34 -34.24500 151.26667 3994 ft 265 kts 341°
2026-05-05 20:35 -34.22762 151.25905 3717 ft 265 kts 341°
2026-05-05 20:35 -34.21043 151.25150 3438 ft 258 kts 341°
2026-05-05 20:35 -34.19386 151.24424 3143 ft 249 kts 341°
2026-05-05 20:35 -34.17787 151.23725 2996 ft 236 kts 342°
2026-05-05 20:36 -34.16278 151.23236 3024 ft 216 kts 349°
2026-05-05 20:36 -34.14867 151.22868 3014 ft 201 kts 349°
2026-05-05 20:36 -34.13549 151.22522 3011 ft 184 kts 349°
2026-05-05 20:36 -34.12347 151.22206 3010 ft 171 kts 350°
2026-05-05 20:37 -34.11224 151.21912 2962 ft 165 kts 350°
2026-05-05 20:37 -34.10077 151.21618 2766 ft 170 kts 350°
2026-05-05 20:37 -34.08923 151.21319 2536 ft 170 kts 349°
2026-05-05 20:37 -34.07761 151.21018 2313 ft 170 kts 349°
2026-05-05 20:38 -34.06599 151.20716 2081 ft 171 kts 349°
2026-05-05 20:38 -34.05431 151.20414 1847 ft 171 kts 348°
2026-05-05 20:38 -34.04288 151.20118 1620 ft 168 kts 348°
2026-05-05 20:38 -34.03160 151.19824 1389 ft 164 kts 347°
2026-05-05 20:39 -34.02045 151.19531 1169 ft 165 kts 347°
2026-05-05 20:39 -34.00927 151.19237 953 ft 163 kts 346°
2026-05-05 20:39 -33.99836 151.18955 731 ft 159 kts 346°
2026-05-05 20:39 -33.98781 151.18690 543 ft 150 kts 347°
2026-05-05 20:40 -33.97785 151.18425 368 ft 143 kts 345°
2026-05-05 20:40 -33.96811 151.18167 181 ft 142 kts 346°
2026-05-05 20:40 -33.95873 151.17927 43 ft 132 kts 347°
2026-05-05 20:40 -33.95108 151.17723 33 ft 89 kts 348°
2026-05-05 20:41 -33.94662 151.17604 35 ft 48 kts 345°
2026-05-05 20:41 -33.94419 151.17456 35 ft 26 kts 321°
2026-05-05 20:41 -33.94331 151.17359 35 ft 4 kts 317°
2026-05-05 20:41 -33.94330 151.17357 35 ft 0 kts 317°
2026-05-05 20:42 -33.94323 151.17349 36 ft 6 kts 317°
2026-05-05 20:42 -33.94267 151.17307 35 ft 13 kts 341°
2026-05-05 20:42 -33.94159 151.17274 32 ft 17 kts 347°
2026-05-05 20:42 -33.94042 151.17242 35 ft 17 kts 347°
2026-05-05 20:43 -33.93981 151.17197 35 ft 2 kts 285°
2026-05-05 20:43 -33.93990 151.17143 35 ft 15 kts 256°
2026-05-05 20:43 -33.94031 151.16972 35 ft 25 kts 254°
2026-05-05 20:43 -33.94041 151.16812 35 ft 12 kts 309°
2026-05-05 20:44 -33.93997 151.16794 35 ft 9 kts 347°
2026-05-05 20:44 -33.93907 151.16768 36 ft 16 kts 345°
2026-05-05 20:44 -33.93847 151.16766 36 ft 1 kts 40°
2026-05-05 20:44 -33.93841 151.16783 36 ft 4 kts 67°
2026-05-05 20:45 -33.93829 151.16834 35 ft 0 kts 74°
2026-05-05 20:45 -33.93827 151.16840 35 ft 0 kts 74°